Observation data for Sweetwater on 09/12/2017      Previous  Date       Current Mesonet Observations  Soil Data  Daily Summary Page  Observations in Plain Language
KSW1 120500Z 10008KT 20/10 A301 RMK A01 T01990098  RH  052%=      5-min Rain = 0
KSW1 120501Z 10008KT 20/10 A301 RMK A01 T02000098  RH  052%=      5-min Rain = 0
KSW1 120502Z 10008KT 20/10 A301 RMK A01 T01990098  RH  052%=      5-min Rain = 0
KSW1 120503Z 10008KT 20/10 A301 RMK A01 T01990098  RH  052%=      5-min Rain = 0
KSW1 120504Z 10008KT 20/10 A301 RMK A01 T01980098  RH  052%=      5-min Rain = 0
KSW1 120505Z 11008KT 20/10 A301 RMK A01 T01980098  RH  053%=      5-min Rain = 0
KSW1 120506Z 11008KT 20/10 A301 RMK A01 T01980098  RH  053%=      5-min Rain = 0
KSW1 120507Z 11008KT 20/10 A301 RMK A01 T01970099  RH  053%=      5-min Rain = 0
KSW1 120508Z 11008KT 20/10 A301 RMK A01 T01960098  RH  053%=      5-min Rain = 0
KSW1 120509Z 11008KT 20/10 A301 RMK A01 T01960098  RH  053%=      5-min Rain = 0
KSW1 120510Z 11008KT 20/10 A301 RMK A01 T01950098  RH  053%=      5-min Rain = 0
KSW1 120511Z 11008KT 20/10 A301 RMK A01 T01950099  RH  054%=      5-min Rain = 0
KSW1 120512Z 10008KT 20/10 A301 RMK A01 T01950098  RH  054%=      5-min Rain = 0
KSW1 120513Z 11008KT 20/10 A301 RMK A01 T01950099  RH  054%=      5-min Rain = 0
KSW1 120514Z 10008KT 20/10 A301 RMK A01 T01950099  RH  054%=      5-min Rain = 0
KSW1 120515Z 11008KT 20/10 A301 RMK A01 T01950098  RH  054%=      5-min Rain = 0
KSW1 120516Z 11007KT 19/10 A301 RMK A01 T01940099  RH  054%=      5-min Rain = 0
KSW1 120517Z 11007KT 19/10 A301 RMK A01 T01940099  RH  054%=      5-min Rain = 0
KSW1 120518Z 11007KT 19/10 A301 RMK A01 T01940099  RH  054%=      5-min Rain = 0
KSW1 120519Z 11007KT 19/10 A301 RMK A01 T01930099  RH  054%=      5-min Rain = 0
KSW1 120520Z 11007KT 19/10 A301 RMK A01 T01930099  RH  054%=      5-min Rain = 0
KSW1 120521Z 11007KT 19/10 A301 RMK A01 T01930099  RH  054%=      5-min Rain = 0
KSW1 120522Z 11007KT 19/10 A301 RMK A01 T01930099  RH  054%=      5-min Rain = 0
KSW1 120523Z 11007KT 19/10 A301 RMK A01 T01930099  RH  055%=      5-min Rain = 0
KSW1 120524Z 11007KT 19/10 A301 RMK A01 T01920099  RH  055%=      5-min Rain = 0
KSW1 120525Z 11007KT 19/10 A301 RMK A01 T01920099  RH  055%=      5-min Rain = 0
KSW1 120526Z 11007KT 19/10 A301 RMK A01 T01910099  RH  055%=      5-min Rain = 0
KSW1 120527Z 11007KT 19/10 A301 RMK A01 T01910099  RH  055%=      5-min Rain = 0
KSW1 120528Z 11007KT 19/10 A301 RMK A01 T01910099  RH  055%=      5-min Rain = 0
KSW1 120529Z 11007KT 19/10 A301 RMK A01 T01910099  RH  055%=      5-min Rain = 0
KSW1 120530Z 11007KT 19/10 A301 RMK A01 T01910099  RH  055%=      5-min Rain = 0
KSW1 120531Z 11008KT 19/10 A3009 RMK A01 T01910099  RH  055%=      5-min Rain = 0
KSW1 120532Z 11007KT 19/10 A3009 RMK A01 T01900099  RH  055%=      5-min Rain = 0
KSW1 120533Z 11007KT 19/10 A3009 RMK A01 T01900099  RH  055%=      5-min Rain = 0
KSW1 120534Z 11007KT 19/10 A3009 RMK A01 T01890098  RH  056%=      5-min Rain = 0
KSW1 120535Z 11007KT 19/10 A3009 RMK A01 T01900099  RH  056%=      5-min Rain = 0
KSW1 120536Z 11007KT 19/10 A3009 RMK A01 T01890099  RH  056%=      5-min Rain = 0
KSW1 120537Z 11007KT 19/10 A3009 RMK A01 T01890099  RH  056%=      5-min Rain = 0
KSW1 120538Z 11006KT 19/10 A3009 RMK A01 T01890099  RH  056%=      5-min Rain = 0
KSW1 120539Z 11006KT 19/10 A3009 RMK A01 T01880099  RH  056%=      5-min Rain = 0
KSW1 120540Z 12006KT 19/10 A3009 RMK A01 T01880099  RH  056%=      5-min Rain = 0
KSW1 120541Z 12006KT 19/10 A3009 RMK A01 T01870099  RH  056%=      5-min Rain = 0
KSW1 120542Z 12006KT 19/10 A3009 RMK A01 T01870099  RH  056%=      5-min Rain = 0
KSW1 120543Z 12006KT 19/10 A3009 RMK A01 T01870099  RH  057%=      5-min Rain = 0
KSW1 120544Z 12006KT 19/10 A3009 RMK A01 T01860099  RH  057%=      5-min Rain = 0
KSW1 120545Z 12006KT 19/10 A3009 RMK A01 T01860099  RH  057%=      5-min Rain = 0
KSW1 120546Z 12006KT 19/10 A3009 RMK A01 T01860099  RH  057%=      5-min Rain = 0
KSW1 120547Z 12005KT 19/10 A3009 RMK A01 T01850099  RH  057%=      5-min Rain = 0
KSW1 120548Z 12006KT 18/10 A3009 RMK A01 T01840099  RH  057%=      5-min Rain = 0
KSW1 120549Z 12006KT 18/10 A3009 RMK A01 T01840099  RH  058%=      5-min Rain = 0
KSW1 120550Z 12006KT 18/10 A3009 RMK A01 T01830099  RH  058%=      5-min Rain = 0
KSW1 120551Z 12005KT 18/10 A3009 RMK A01 T01830098  RH  058%=      5-min Rain = 0
KSW1 120552Z 11004KT 18/10 A3009 RMK A01 T01820098  RH  058%=      5-min Rain = 0
KSW1 120553Z 11004KT 18/10 A3009 RMK A01 T01820099  RH  058%=      5-min Rain = 0
KSW1 120554Z 12004KT 18/10 A3009 RMK A01 T01810099  RH  058%=      5-min Rain = 0
KSW1 120555Z 12004KT 18/10 A3009 RMK A01 T01800099  RH  059%=      5-min Rain = 0
KSW1 120556Z 12005KT 18/10 A3009 RMK A01 T01800098  RH  059%=      5-min Rain = 0
KSW1 120557Z 12005KT 18/10 A3009 RMK A01 T01800099  RH  059%=      5-min Rain = 0
KSW1 120558Z 12005KT 18/10 A3009 RMK A01 T01800099  RH  059%=      5-min Rain = 0
KSW1 120559Z 12005KT 18/10 A3009 RMK A01 T01800098  RH  059%=      5-min Rain = 0
KSW1 120600Z 12005KT 18/10 A3009 RMK A01 T01800098  RH  059%=      5-min Rain = 0
KSW1 120601Z 12005KT 18/10 A3009 RMK A01 T01810098  RH  058%=      5-min Rain = 0
KSW1 120602Z 12005KT 18/10 A3009 RMK A01 T01810098  RH  058%=      5-min Rain = 0
KSW1 120603Z 13005KT 18/10 A3009 RMK A01 T01810098  RH  058%=      5-min Rain = 0
KSW1 120604Z 12005KT 18/10 A3009 RMK A01 T01820099  RH  058%=      5-min Rain = 0
KSW1 120605Z 12005KT 18/10 A3009 RMK A01 T01820098  RH  058%=      5-min Rain = 0
KSW1 120606Z 13005KT 18/10 A3009 RMK A01 T01820098  RH  058%=      5-min Rain = 0
KSW1 120607Z 13005KT 18/10 A3009 RMK A01 T01820098  RH  058%=      5-min Rain = 0
KSW1 120608Z 13005KT 18/10 A3009 RMK A01 T01820098  RH  058%=      5-min Rain = 0
KSW1 120609Z 12005KT 18/10 A3009 RMK A01 T01820098  RH  058%=      5-min Rain = 0
KSW1 120610Z 12005KT 18/10 A3009 RMK A01 T01820098  RH  058%=      5-min Rain = 0
KSW1 120611Z 13005KT 18/10 A3009 RMK A01 T01820098  RH  058%=      5-min Rain = 0
KSW1 120612Z 13004KT 18/10 A3009 RMK A01 T01820098  RH  058%=      5-min Rain = 0
KSW1 120613Z 13004KT 18/10 A3009 RMK A01 T01820098  RH  058%=      5-min Rain = 0
KSW1 120614Z 13004KT 18/10 A3009 RMK A01 T01820098  RH  058%=      5-min Rain = 0
KSW1 120615Z 13005KT 18/10 A3009 RMK A01 T01820098  RH  058%=      5-min Rain = 0
KSW1 120616Z 13005KT 18/10 A3009 RMK A01 T01820098  RH  058%=      5-min Rain = 0
KSW1 120617Z 12005KT 18/10 A3008 RMK A01 T01820098  RH  058%=      5-min Rain = 0
KSW1 120618Z 12005KT 18/10 A3008 RMK A01 T01810098  RH  058%=      5-min Rain = 0
KSW1 120619Z 12005KT 18/10 A3008 RMK A01 T01820098  RH  058%=      5-min Rain = 0
KSW1 120620Z 12005KT 18/10 A3008 RMK A01 T01810098  RH  058%=      5-min Rain = 0
KSW1 120621Z 12005KT 18/10 A3008 RMK A01 T01810098  RH  058%=      5-min Rain = 0
KSW1 120622Z 12005KT 18/10 A3008 RMK A01 T01810098  RH  058%=      5-min Rain = 0
KSW1 120623Z 12005KT 18/10 A3008 RMK A01 T01810098  RH  058%=      5-min Rain = 0
KSW1 120624Z 12005KT 18/10 A3008 RMK A01 T01820098  RH  058%=      5-min Rain = 0
KSW1 120625Z 12005KT 18/10 A3008 RMK A01 T01810098  RH  058%=      5-min Rain = 0
KSW1 120626Z 12005KT 18/10 A3008 RMK A01 T01810098  RH  058%=      5-min Rain = 0
KSW1 120627Z 12004KT 18/10 A3008 RMK A01 T01820098  RH  058%=      5-min Rain = 0
KSW1 120628Z 12004KT 18/10 A3008 RMK A01 T01810098  RH  058%=      5-min Rain = 0
KSW1 120629Z 12004KT 18/10 A3008 RMK A01 T01810099  RH  059%=      5-min Rain = 0
KSW1 120630Z 11004KT 18/10 A3008 RMK A01 T01810099  RH  059%=      5-min Rain = 0
KSW1 120631Z 12004KT 18/10 A3008 RMK A01 T01800099  RH  059%=      5-min Rain = 0
KSW1 120632Z 12004KT 18/10 A3008 RMK A01 T01810099  RH  059%=      5-min Rain = 0
KSW1 120633Z 12004KT 18/10 A3008 RMK A01 T01800099  RH  059%=      5-min Rain = 0
KSW1 120634Z 12003KT 18/10 A3008 RMK A01 T01810099  RH  059%=      5-min Rain = 0
KSW1 120635Z 12004KT 18/10 A3008 RMK A01 T01810099  RH  058%=      5-min Rain = 0
KSW1 120636Z 12004KT 18/10 A3008 RMK A01 T01820099  RH  058%=      5-min Rain = 0
KSW1 120637Z 13004KT 18/10 A3008 RMK A01 T01830099  RH  058%=      5-min Rain = 0
KSW1 120638Z 13004KT 18/10 A3008 RMK A01 T01830099  RH  058%=      5-min Rain = 0
KSW1 120639Z 13004KT 18/10 A3008 RMK A01 T01830099  RH  058%=      5-min Rain = 0
KSW1 120640Z 13004KT 18/10 A3008 RMK A01 T01830099  RH  058%=      5-min Rain = 0
KSW1 120641Z 13005KT 18/10 A3008 RMK A01 T01830099  RH  058%=      5-min Rain = 0
KSW1 120642Z 13004KT 18/10 A3008 RMK A01 T01830099  RH  058%=      5-min Rain = 0
KSW1 120643Z 13004KT 18/10 A3008 RMK A01 T01830099  RH  058%=      5-min Rain = 0
KSW1 120644Z 13004KT 18/10 A3008 RMK A01 T01830099  RH  058%=      5-min Rain = 0
KSW1 120645Z 13004KT 18/10 A3008 RMK A01 T01830099  RH  058%=      5-min Rain = 0
KSW1 120646Z 13004KT 18/10 A3008 RMK A01 T01830099  RH  058%=      5-min Rain = 0
KSW1 120647Z 12004KT 18/10 A3008 RMK A01 T01820099  RH  058%=      5-min Rain = 0
KSW1 120648Z 12004KT 18/10 A3008 RMK A01 T01820098  RH  058%=      5-min Rain = 0
KSW1 120649Z 12004KT 18/10 A3008 RMK A01 T01810098  RH  058%=      5-min Rain = 0
KSW1 120650Z 12004KT 18/10 A3008 RMK A01 T01800098  RH  059%=      5-min Rain = 0
KSW1 120651Z 12004KT 18/10 A3008 RMK A01 T01800098  RH  059%=      5-min Rain = 0
KSW1 120652Z 12004KT 18/10 A3008 RMK A01 T01790099  RH  059%=      5-min Rain = 0
KSW1 120653Z 12004KT 18/10 A3008 RMK A01 T01780098  RH  059%=      5-min Rain = 0
KSW1 120654Z 12004KT 18/10 A3008 RMK A01 T01780098  RH  060%=      5-min Rain = 0
KSW1 120655Z 13004KT 18/10 A3008 RMK A01 T01770098  RH  060%=      5-min Rain = 0
KSW1 120656Z 12004KT 18/10 A3008 RMK A01 T01770098  RH  060%=      5-min Rain = 0
KSW1 120657Z 12004KT 18/10 A3008 RMK A01 T01760098  RH  060%=      5-min Rain = 0
KSW1 120658Z 12004KT 18/10 A3008 RMK A01 T01760098  RH  060%=      5-min Rain = 0
KSW1 120659Z 12004KT 18/10 A3008 RMK A01 T01760098  RH  060%=      5-min Rain = 0
KSW1 120700Z 12004KT 18/10 A3008 RMK A01 T01750098  RH  060%=      5-min Rain = 0
KSW1 120701Z 12004KT 18/10 A3008 RMK A01 T01760098  RH  060%=      5-min Rain = 0
KSW1 120702Z 12004KT 18/10 A3008 RMK A01 T01750098  RH  061%=      5-min Rain = 0
KSW1 120703Z 12004KT 18/10 A3008 RMK A01 T01750098  RH  061%=      5-min Rain = 0
KSW1 120704Z 12004KT 18/10 A3008 RMK A01 T01750098  RH  061%=      5-min Rain = 0
KSW1 120705Z 12004KT 18/10 A3008 RMK A01 T01750098  RH  061%=      5-min Rain = 0
KSW1 120706Z 12004KT 18/10 A3008 RMK A01 T01750098  RH  061%=      5-min Rain = 0
KSW1 120707Z 12004KT 18/10 A3008 RMK A01 T01750098  RH  061%=      5-min Rain = 0
KSW1 120708Z 13004KT 18/10 A3008 RMK A01 T01750098  RH  061%=      5-min Rain = 0
KSW1 120709Z 13004KT 18/10 A3008 RMK A01 T01760098  RH  060%=      5-min Rain = 0
KSW1 120710Z 12003KT 18/10 A3008 RMK A01 T01770098  RH  060%=      5-min Rain = 0
KSW1 120711Z 13003KT 18/10 A3008 RMK A01 T01780099  RH  060%=      5-min Rain = 0
KSW1 120712Z 13003KT 18/10 A3008 RMK A01 T01780099  RH  060%=      5-min Rain = 0
KSW1 120713Z 13003KT 18/10 A3008 RMK A01 T01790099  RH  059%=      5-min Rain = 0
KSW1 120714Z 13003KT 18/10 A3008 RMK A01 T01790098  RH  059%=      5-min Rain = 0
KSW1 120715Z 13003KT 18/10 A3008 RMK A01 T01800099  RH  059%=      5-min Rain = 0
KSW1 120716Z 13003KT 18/10 A3008 RMK A01 T01800099  RH  059%=      5-min Rain = 0
KSW1 120717Z 13003KT 18/10 A3008 RMK A01 T01800099  RH  059%=      5-min Rain = 0
KSW1 120718Z 13004KT 18/10 A3008 RMK A01 T01800098  RH  059%=      5-min Rain = 0
KSW1 120719Z 13004KT 18/10 A3008 RMK A01 T01800099  RH  059%=      5-min Rain = 0
KSW1 120720Z 12004KT 18/10 A3008 RMK A01 T01800098  RH  059%=      5-min Rain = 0
KSW1 120721Z 12004KT 18/10 A3008 RMK A01 T01810099  RH  059%=      5-min Rain = 0
KSW1 120722Z 12004KT 18/10 A3008 RMK A01 T01820099  RH  058%=      5-min Rain = 0
KSW1 120723Z 12004KT 18/10 A3008 RMK A01 T01810099  RH  058%=      5-min Rain = 0
KSW1 120724Z 12004KT 18/10 A3008 RMK A01 T01810099  RH  058%=      5-min Rain = 0
KSW1 120725Z 12004KT 18/10 A3008 RMK A01 T01810099  RH  059%=      5-min Rain = 0
KSW1 120726Z 12004KT 18/10 A3008 RMK A01 T01810098  RH  059%=      5-min Rain = 0
KSW1 120727Z 12004KT 18/10 A3008 RMK A01 T01810098  RH  058%=      5-min Rain = 0
KSW1 120728Z 12004KT 18/10 A3008 RMK A01 T01810099  RH  059%=      5-min Rain = 0
KSW1 120729Z 12004KT 18/10 A3008 RMK A01 T01810099  RH  058%=      5-min Rain = 0
KSW1 120730Z 12004KT 18/10 A3008 RMK A01 T01810098  RH  058%=      5-min Rain = 0
KSW1 120731Z 12004KT 18/10 A3008 RMK A01 T01810098  RH  058%=      5-min Rain = 0
KSW1 120732Z 12004KT 18/10 A3008 RMK A01 T01810098  RH  058%=      5-min Rain = 0
KSW1 120733Z 12004KT 18/10 A3008 RMK A01 T01820098  RH  058%=      5-min Rain = 0
KSW1 120734Z 12004KT 18/10 A3008 RMK A01 T01820098  RH  058%=      5-min Rain = 0
KSW1 120735Z 11004KT 18/10 A3007 RMK A01 T01820098  RH  058%=      5-min Rain = 0
KSW1 120736Z 11004KT 18/10 A3007 RMK A01 T01810098  RH  058%=      5-min Rain = 0
KSW1 120737Z 11004KT 18/10 A3007 RMK A01 T01810098  RH  058%=      5-min Rain = 0
KSW1 120738Z 11005KT 18/10 A3007 RMK A01 T01800098  RH  059%=      5-min Rain = 0
KSW1 120739Z 11005KT 18/10 A3007 RMK A01 T01800098  RH  059%=      5-min Rain = 0
KSW1 120740Z 11005KT 18/10 A3007 RMK A01 T01800098  RH  059%=      5-min Rain = 0
KSW1 120741Z 11005KT 18/10 A3007 RMK A01 T01800098  RH  059%=      5-min Rain = 0
KSW1 120742Z 11005KT 18/10 A3007 RMK A01 T01790097  RH  059%=      5-min Rain = 0
KSW1 120743Z 11005KT 18/10 A3007 RMK A01 T01790097  RH  059%=      5-min Rain = 0
KSW1 120744Z 11005KT 18/10 A3007 RMK A01 T01790098  RH  059%=      5-min Rain = 0
KSW1 120745Z 11005KT 18/10 A3007 RMK A01 T01780097  RH  059%=      5-min Rain = 0
KSW1 120746Z 11005KT 18/10 A3007 RMK A01 T01780097  RH  059%=      5-min Rain = 0
KSW1 120747Z 11005KT 18/10 A3007 RMK A01 T01770097  RH  059%=      5-min Rain = 0
KSW1 120748Z 11005KT 18/10 A3007 RMK A01 T01770097  RH  060%=      5-min Rain = 0
KSW1 120749Z 11005KT 18/10 A3007 RMK A01 T01770098  RH  060%=      5-min Rain = 0
KSW1 120750Z 11005KT 18/10 A3007 RMK A01 T01760097  RH  060%=      5-min Rain = 0
KSW1 120751Z 11005KT 18/10 A3007 RMK A01 T01760097  RH  060%=      5-min Rain = 0
KSW1 120752Z 11005KT 18/10 A3007 RMK A01 T01760097  RH  060%=      5-min Rain = 0
KSW1 120753Z 11005KT 18/10 A3007 RMK A01 T01760097  RH  060%=      5-min Rain = 0
KSW1 120754Z 11005KT 18/10 A3007 RMK A01 T01760097  RH  060%=      5-min Rain = 0
KSW1 120755Z 11004KT 18/10 A3007 RMK A01 T01760097  RH  060%=      5-min Rain = 0
KSW1 120756Z 11005KT 18/10 A3007 RMK A01 T01750097  RH  060%=      5-min Rain = 0
KSW1 120757Z 11005KT 18/10 A3007 RMK A01 T01750097  RH  060%=      5-min Rain = 0
KSW1 120758Z 11005KT 18/10 A3007 RMK A01 T01750096  RH  060%=      5-min Rain = 0
KSW1 120759Z 11005KT 18/10 A3007 RMK A01 T01750096  RH  060%=      5-min Rain = 0
KSW1 120800Z 11005KT 18/10 A3007 RMK A01 T01750096  RH  060%=      5-min Rain = 0
KSW1 120801Z 11005KT 18/10 A3007 RMK A01 T01760096  RH  060%=      5-min Rain = 0
KSW1 120802Z 11005KT 18/10 A3007 RMK A01 T01760096  RH  060%=      5-min Rain = 0
KSW1 120803Z 11005KT 18/10 A3007 RMK A01 T01750096  RH  060%=      5-min Rain = 0
KSW1 120804Z 11005KT 18/10 A3007 RMK A01 T01760096  RH  059%=      5-min Rain = 0
KSW1 120805Z 11005KT 18/10 A3007 RMK A01 T01760096  RH  059%=      5-min Rain = 0
KSW1 120806Z 11005KT 18/10 A3007 RMK A01 T01760096  RH  059%=      5-min Rain = 0
KSW1 120807Z 11005KT 18/10 A3007 RMK A01 T01760096  RH  059%=      5-min Rain = 0
KSW1 120808Z 11004KT 18/10 A3007 RMK A01 T01760096  RH  059%=      5-min Rain = 0
KSW1 120809Z 11004KT 18/10 A3007 RMK A01 T01750096  RH  060%=      5-min Rain = 0
KSW1 120810Z 12004KT 17/10 A3007 RMK A01 T01740096  RH  060%=      5-min Rain = 0
KSW1 120811Z 12003KT 17/10 A3007 RMK A01 T01730096  RH  061%=      5-min Rain = 0
KSW1 120812Z 13003KT 17/10 A3007 RMK A01 T01730096  RH  061%=      5-min Rain = 0
KSW1 120813Z 13003KT 17/10 A3007 RMK A01 T01730096  RH  061%=      5-min Rain = 0
KSW1 120814Z 13003KT 17/10 A3007 RMK A01 T01730096  RH  061%=      5-min Rain = 0
KSW1 120815Z 13003KT 17/10 A3007 RMK A01 T01730096  RH  061%=      5-min Rain = 0
KSW1 120816Z 13003KT 17/10 A3007 RMK A01 T01730096  RH  060%=      5-min Rain = 0
KSW1 120817Z 13004KT 17/10 A3007 RMK A01 T01730096  RH  060%=      5-min Rain = 0
KSW1 120818Z 13004KT 17/10 A3007 RMK A01 T01730096  RH  060%=      5-min Rain = 0
KSW1 120819Z 13004KT 17/10 A3007 RMK A01 T01740096  RH  060%=      5-min Rain = 0
KSW1 120820Z 13004KT 18/10 A3007 RMK A01 T01750096  RH  060%=      5-min Rain = 0
KSW1 120821Z 13004KT 18/10 A3007 RMK A01 T01760096  RH  059%=      5-min Rain = 0
KSW1 120822Z 13004KT 18/10 A3007 RMK A01 T01770096  RH  059%=      5-min Rain = 0
KSW1 120823Z 13004KT 18/10 A3007 RMK A01 T01770095  RH  059%=      5-min Rain = 0
KSW1 120824Z 13003KT 18/10 A3007 RMK A01 T01780096  RH  059%=      5-min Rain = 0
KSW1 120825Z 13003KT 18/10 A3007 RMK A01 T01780096  RH  058%=      5-min Rain = 0
KSW1 120826Z 13003KT 18/10 A3007 RMK A01 T01780095  RH  058%=      5-min Rain = 0
KSW1 120827Z 13003KT 18/10 A3007 RMK A01 T01780095  RH  058%=      5-min Rain = 0
KSW1 120828Z 13003KT 18/10 A3007 RMK A01 T01780095  RH  058%=      5-min Rain = 0
KSW1 120829Z 14002KT 18/10 A3007 RMK A01 T01780096  RH  058%=      5-min Rain = 0
KSW1 120830Z 14002KT 18/10 A3007 RMK A01 T01780095  RH  058%=      5-min Rain = 0
KSW1 120831Z 14002KT 18/10 A3007 RMK A01 T01780095  RH  058%=      5-min Rain = 0
KSW1 120832Z 14002KT 18/10 A3007 RMK A01 T01770095  RH  059%=      5-min Rain = 0
KSW1 120833Z 13003KT 18/10 A3006 RMK A01 T01770095  RH  059%=      5-min Rain = 0
KSW1 120834Z 13003KT 18/10 A3006 RMK A01 T01770095  RH  059%=      5-min Rain = 0
KSW1 120835Z 14003KT 18/10 A3006 RMK A01 T01770095  RH  059%=      5-min Rain = 0
KSW1 120836Z 13003KT 18/10 A3006 RMK A01 T01770095  RH  059%=      5-min Rain = 0
KSW1 120837Z 14003KT 18/10 A3006 RMK A01 T01770095  RH  059%=      5-min Rain = 0
KSW1 120838Z 14003KT 18/10 A3006 RMK A01 T01770095  RH  059%=      5-min Rain = 0
KSW1 120839Z 14003KT 18/10 A3006 RMK A01 T01770095  RH  059%=      5-min Rain = 0
KSW1 120840Z 15003KT 18/10 A3006 RMK A01 T01770095  RH  059%=      5-min Rain = 0
KSW1 120841Z 15003KT 18/10 A3006 RMK A01 T01770095  RH  059%=      5-min Rain = 0
KSW1 120842Z 15003KT 18/10 A3006 RMK A01 T01770095  RH  059%=      5-min Rain = 0
KSW1 120843Z 14003KT 18/10 A3006 RMK A01 T01770095  RH  059%=      5-min Rain = 0
KSW1 120844Z 14003KT 18/10 A3006 RMK A01 T01770095  RH  059%=      5-min Rain = 0
KSW1 120845Z 14002KT 18/10 A3006 RMK A01 T01770095  RH  059%=      5-min Rain = 0
KSW1 120846Z 15002KT 18/10 A3006 RMK A01 T01770095  RH  059%=      5-min Rain = 0
KSW1 120847Z 16001KT 18/10 A3006 RMK A01 T01760095  RH  059%=      5-min Rain = 0
KSW1 120848Z 16001KT 18/09 A3006 RMK A01 T01760094  RH  059%=      5-min Rain = 0
KSW1 120849Z 15001KT 18/10 A3006 RMK A01 T01750095  RH  059%=      5-min Rain = 0
KSW1 120850Z 15001KT 18/10 A3006 RMK A01 T01750095  RH  060%=      5-min Rain = 0
KSW1 120851Z 15001KT 17/10 A3006 RMK A01 T01730095  RH  060%=      5-min Rain = 0
KSW1 120852Z 15001KT 17/10 A3006 RMK A01 T01720095  RH  060%=      5-min Rain = 0
KSW1 120853Z 15001KT 17/10 A3006 RMK A01 T01710096  RH  061%=      5-min Rain = 0
KSW1 120854Z 15002KT 17/10 A3006 RMK A01 T01700096  RH  062%=      5-min Rain = 0
KSW1 120855Z 15001KT 17/10 A3006 RMK A01 T01690096  RH  062%=      5-min Rain = 0
KSW1 120856Z 15002KT 17/10 A3006 RMK A01 T01680095  RH  062%=      5-min Rain = 0
KSW1 120857Z 14002KT 17/10 A3006 RMK A01 T01670095  RH  063%=      5-min Rain = 0
KSW1 120858Z 14002KT 17/10 A3006 RMK A01 T01660095  RH  063%=      5-min Rain = 0
KSW1 120859Z 13002KT 17/10 A3006 RMK A01 T01660095  RH  063%=      5-min Rain = 0
KSW1 120900Z 14002KT 17/10 A3006 RMK A01 T01650095  RH  063%=      5-min Rain = 0
KSW1 120901Z 14002KT 17/10 A3006 RMK A01 T01650095  RH  063%=      5-min Rain = 0
KSW1 120902Z 14002KT 16/10 A3006 RMK A01 T01640095  RH  063%=      5-min Rain = 0
KSW1 120903Z 15002KT 16/10 A3006 RMK A01 T01640095  RH  063%=      5-min Rain = 0
KSW1 120904Z 16001KT 16/09 A3006 RMK A01 T01630094  RH  064%=      5-min Rain = 0
KSW1 120905Z 15001KT 16/09 A3006 RMK A01 T01630094  RH  064%=      5-min Rain = 0
KSW1 120906Z 15002KT 16/09 A3006 RMK A01 T01630094  RH  064%=      5-min Rain = 0
KSW1 120907Z 15002KT 16/09 A3006 RMK A01 T01630094  RH  064%=      5-min Rain = 0
KSW1 120908Z 16002KT 16/09 A3006 RMK A01 T01630094  RH  064%=      5-min Rain = 0
KSW1 120909Z 15003KT 16/09 A3006 RMK A01 T01630094  RH  064%=      5-min Rain = 0
KSW1 120910Z 15003KT 16/09 A3006 RMK A01 T01630094  RH  064%=      5-min Rain = 0
KSW1 120911Z 15003KT 16/09 A3006 RMK A01 T01630094  RH  064%=      5-min Rain = 0
KSW1 120912Z 15003KT 16/09 A3006 RMK A01 T01630094  RH  064%=      5-min Rain = 0
KSW1 120913Z 15003KT 16/09 A3006 RMK A01 T01630094  RH  064%=      5-min Rain = 0
KSW1 120914Z 14003KT 16/09 A3006 RMK A01 T01630094  RH  064%=      5-min Rain = 0
KSW1 120915Z 14003KT 16/09 A3005 RMK A01 T01630094  RH  064%=      5-min Rain = 0
KSW1 120916Z 14003KT 16/09 A3005 RMK A01 T01630094  RH  064%=      5-min Rain = 0
KSW1 120917Z 14003KT 16/09 A3005 RMK A01 T01630094  RH  063%=      5-min Rain = 0
KSW1 120918Z 14004KT 16/09 A3005 RMK A01 T01630094  RH  063%=      5-min Rain = 0
KSW1 120919Z 14004KT 16/09 A3005 RMK A01 T01640093  RH  063%=      5-min Rain = 0
KSW1 120920Z 14004KT 17/09 A3005 RMK A01 T01650093  RH  063%=      5-min Rain = 0
KSW1 120921Z 14004KT 17/09 A3005 RMK A01 T01660094  RH  062%=      5-min Rain = 0
KSW1 120922Z 13004KT 17/09 A3005 RMK A01 T01670094  RH  062%=      5-min Rain = 0
KSW1 120923Z 13004KT 17/09 A3005 RMK A01 T01670093  RH  062%=      5-min Rain = 0
KSW1 120924Z 13004KT 17/09 A3005 RMK A01 T01670093  RH  062%=      5-min Rain = 0
KSW1 120925Z 13004KT 17/09 A3005 RMK A01 T01670093  RH  062%=      5-min Rain = 0
KSW1 120926Z 13004KT 17/09 A3005 RMK A01 T01680093  RH  061%=      5-min Rain = 0
KSW1 120927Z 13004KT 17/09 A3005 RMK A01 T01690093  RH  061%=      5-min Rain = 0
KSW1 120928Z 13004KT 17/09 A3005 RMK A01 T01690093  RH  061%=      5-min Rain = 0
KSW1 120929Z 13004KT 17/09 A3005 RMK A01 T01700093  RH  061%=      5-min Rain = 0
KSW1 120930Z 13004KT 17/09 A3005 RMK A01 T01700093  RH  060%=      5-min Rain = 0
KSW1 120931Z 14004KT 17/09 A3005 RMK A01 T01700093  RH  060%=      5-min Rain = 0
KSW1 120932Z 14003KT 17/09 A3005 RMK A01 T01710093  RH  060%=      5-min Rain = 0
KSW1 120933Z 14003KT 17/09 A3005 RMK A01 T01710093  RH  060%=      5-min Rain = 0
KSW1 120934Z 14003KT 17/09 A3005 RMK A01 T01710093  RH  060%=      5-min Rain = 0
KSW1 120935Z 14003KT 17/09 A3005 RMK A01 T01710093  RH  060%=      5-min Rain = 0
KSW1 120936Z 13003KT 17/09 A3005 RMK A01 T01710093  RH  060%=      5-min Rain = 0
KSW1 120937Z 14004KT 17/09 A3005 RMK A01 T01710093  RH  060%=      5-min Rain = 0
KSW1 120938Z 14004KT 17/09 A3005 RMK A01 T01720093  RH  060%=      5-min Rain = 0
KSW1 120939Z 13004KT 17/09 A3005 RMK A01 T01720093  RH  060%=      5-min Rain = 0
KSW1 120940Z 14004KT 17/09 A3005 RMK A01 T01720093  RH  060%=      5-min Rain = 0
KSW1 120941Z 13004KT 17/09 A3005 RMK A01 T01720093  RH  060%=      5-min Rain = 0
KSW1 120942Z 13004KT 17/09 A3005 RMK A01 T01720093  RH  060%=      5-min Rain = 0
KSW1 120943Z 13004KT 17/09 A3005 RMK A01 T01720093  RH  060%=      5-min Rain = 0
KSW1 120944Z 13004KT 17/09 A3005 RMK A01 T01720093  RH  060%=      5-min Rain = 0
KSW1 120945Z 13004KT 17/09 A3005 RMK A01 T01710093  RH  060%=      5-min Rain = 0
KSW1 120946Z 13005KT 17/09 A3005 RMK A01 T01710094  RH  060%=      5-min Rain = 0
KSW1 120947Z 13005KT 17/09 A3005 RMK A01 T01710094  RH  060%=      5-min Rain = 0
KSW1 120948Z 13004KT 17/09 A3005 RMK A01 T01710094  RH  060%=      5-min Rain = 0
KSW1 120949Z 13004KT 17/09 A3005 RMK A01 T01700094  RH  061%=      5-min Rain = 0
KSW1 120950Z 13004KT 17/09 A3005 RMK A01 T01690094  RH  061%=      5-min Rain = 0
KSW1 120951Z 13004KT 17/09 A3005 RMK A01 T01680094  RH  061%=      5-min Rain = 0
KSW1 120952Z 13004KT 17/09 A3005 RMK A01 T01670094  RH  062%=      5-min Rain = 0
KSW1 120953Z 13004KT 17/09 A3005 RMK A01 T01660094  RH  062%=      5-min Rain = 0
KSW1 120954Z 13004KT 17/09 A3005 RMK A01 T01660094  RH  062%=      5-min Rain = 0
KSW1 120955Z 13004KT 17/09 A3005 RMK A01 T01650094  RH  063%=      5-min Rain = 0
KSW1 120956Z 13004KT 17/09 A3005 RMK A01 T01660094  RH  063%=      5-min Rain = 0
KSW1 120957Z 13004KT 17/09 A3005 RMK A01 T01660094  RH  063%=      5-min Rain = 0
KSW1 120958Z 13005KT 17/10 A3005 RMK A01 T01660095  RH  062%=      5-min Rain = 0
KSW1 120959Z 13005KT 17/09 A3005 RMK A01 T01660094  RH  062%=      5-min Rain = 0
KSW1 121000Z 12005KT 17/09 A3005 RMK A01 T01660094  RH  062%=      5-min Rain = 0
KSW1 121001Z 12005KT 17/10 A3005 RMK A01 T01660095  RH  063%=      5-min Rain = 0
KSW1 121002Z 12005KT 17/10 A3005 RMK A01 T01660095  RH  063%=      5-min Rain = 0
KSW1 121003Z 12006KT 17/10 A3005 RMK A01 T01660095  RH  063%=      5-min Rain = 0
KSW1 121004Z 12006KT 17/10 A3005 RMK A01 T01650095  RH  063%=      5-min Rain = 0
KSW1 121005Z 12006KT 17/10 A3005 RMK A01 T01650095  RH  063%=      5-min Rain = 0
KSW1 121006Z 12006KT 17/10 A3005 RMK A01 T01650095  RH  063%=      5-min Rain = 0
KSW1 121007Z 13005KT 17/10 A3005 RMK A01 T01650095  RH  063%=      5-min Rain = 0
KSW1 121008Z 13005KT 17/10 A3005 RMK A01 T01650095  RH  063%=      5-min Rain = 0
KSW1 121009Z 13005KT 16/10 A3005 RMK A01 T01640095  RH  064%=      5-min Rain = 0
KSW1 121010Z 13005KT 16/10 A3005 RMK A01 T01640095  RH  064%=      5-min Rain = 0
KSW1 121011Z 13005KT 16/10 A3005 RMK A01 T01640095  RH  064%=      5-min Rain = 0
KSW1 121012Z 13005KT 16/10 A3005 RMK A01 T01630095  RH  064%=      5-min Rain = 0
KSW1 121013Z 14005KT 16/10 A3005 RMK A01 T01630095  RH  064%=      5-min Rain = 0
KSW1 121014Z 14005KT 16/10 A3005 RMK A01 T01630096  RH  064%=      5-min Rain = 0
KSW1 121015Z 14005KT 16/10 A3005 RMK A01 T01630095  RH  064%=      5-min Rain = 0
KSW1 121016Z 14004KT 16/10 A3005 RMK A01 T01630095  RH  064%=      5-min Rain = 0
KSW1 121017Z 14004KT 16/10 A3005 RMK A01 T01620095  RH  064%=      5-min Rain = 0
KSW1 121018Z 14004KT 16/10 A3005 RMK A01 T01630095  RH  064%=      5-min Rain = 0
KSW1 121019Z 14004KT 16/10 A3005 RMK A01 T01630095  RH  064%=      5-min Rain = 0
KSW1 121020Z 15004KT 16/10 A3005 RMK A01 T01630095  RH  064%=      5-min Rain = 0
KSW1 121021Z 14004KT 16/10 A3005 RMK A01 T01630095  RH  064%=      5-min Rain = 0
KSW1 121022Z 14003KT 16/10 A3005 RMK A01 T01630095  RH  064%=      5-min Rain = 0
KSW1 121023Z 14003KT 16/10 A3005 RMK A01 T01640095  RH  064%=      5-min Rain = 0
KSW1 121024Z 14003KT 16/10 A3005 RMK A01 T01640095  RH  064%=      5-min Rain = 0
KSW1 121025Z 14003KT 17/10 A3005 RMK A01 T01650095  RH  063%=      5-min Rain = 0
KSW1 121026Z 14003KT 17/10 A3005 RMK A01 T01650095  RH  063%=      5-min Rain = 0
KSW1 121027Z 14004KT 17/10 A3005 RMK A01 T01660096  RH  063%=      5-min Rain = 0
KSW1 121028Z 14004KT 17/10 A3005 RMK A01 T01660095  RH  063%=      5-min Rain = 0
KSW1 121029Z 14004KT 17/10 A3005 RMK A01 T01660095  RH  063%=      5-min Rain = 0
KSW1 121030Z 13004KT 17/10 A3005 RMK A01 T01660095  RH  063%=      5-min Rain = 0
KSW1 121031Z 13004KT 17/10 A3005 RMK A01 T01660096  RH  063%=      5-min Rain = 0
KSW1 121032Z 13004KT 17/10 A3005 RMK A01 T01650095  RH  063%=      5-min Rain = 0
KSW1 121033Z 13005KT 17/10 A3005 RMK A01 T01650095  RH  063%=      5-min Rain = 0
KSW1 121034Z 13004KT 16/10 A3005 RMK A01 T01640095  RH  064%=      5-min Rain = 0
KSW1 121035Z 13004KT 16/10 A3005 RMK A01 T01640095  RH  064%=      5-min Rain = 0
KSW1 121036Z 13005KT 16/10 A3005 RMK A01 T01630095  RH  064%=      5-min Rain = 0
KSW1 121037Z 14005KT 16/10 A3005 RMK A01 T01630095  RH  064%=      5-min Rain = 0
KSW1 121038Z 14004KT 16/10 A3005 RMK A01 T01620095  RH  064%=      5-min Rain = 0
KSW1 121039Z 13004KT 16/10 A3005 RMK A01 T01610095  RH  065%=      5-min Rain = 0
KSW1 121040Z 14004KT 16/10 A3005 RMK A01 T01610095  RH  065%=      5-min Rain = 0
KSW1 121041Z 14004KT 16/10 A3005 RMK A01 T01610095  RH  065%=      5-min Rain = 0
KSW1 121042Z 13004KT 16/10 A3005 RMK A01 T01610095  RH  065%=      5-min Rain = 0
KSW1 121043Z 14004KT 16/10 A3005 RMK A01 T01610095  RH  065%=      5-min Rain = 0
KSW1 121044Z 14004KT 16/10 A3005 RMK A01 T01610095  RH  065%=      5-min Rain = 0
KSW1 121045Z 14004KT 16/10 A3005 RMK A01 T01610095  RH  065%=      5-min Rain = 0
KSW1 121046Z 14004KT 16/10 A3006 RMK A01 T01610095  RH  065%=      5-min Rain = 0
KSW1 121047Z 13004KT 16/10 A3006 RMK A01 T01600095  RH  065%=      5-min Rain = 0
KSW1 121048Z 13004KT 16/10 A3006 RMK A01 T01600095  RH  065%=      5-min Rain = 0
KSW1 121049Z 13004KT 16/10 A3006 RMK A01 T01600095  RH  065%=      5-min Rain = 0
KSW1 121050Z 13004KT 16/10 A3006 RMK A01 T01610095  RH  065%=      5-min Rain = 0
KSW1 121051Z 13004KT 16/10 A3006 RMK A01 T01610095  RH  065%=      5-min Rain = 0
KSW1 121052Z 13004KT 16/10 A3006 RMK A01 T01610095  RH  065%=      5-min Rain = 0
KSW1 121053Z 13004KT 16/10 A3006 RMK A01 T01600095  RH  065%=      5-min Rain = 0
KSW1 121054Z 13005KT 16/10 A3006 RMK A01 T01600095  RH  065%=      5-min Rain = 0
KSW1 121055Z 12005KT 16/10 A3006 RMK A01 T01590095  RH  065%=      5-min Rain = 0
KSW1 121056Z 12005KT 16/10 A3006 RMK A01 T01590095  RH  066%=      5-min Rain = 0
KSW1 121057Z 12005KT 16/10 A3006 RMK A01 T01590095  RH  065%=      5-min Rain = 0
KSW1 121058Z 12005KT 16/10 A3006 RMK A01 T01600095  RH  065%=      5-min Rain = 0
KSW1 121059Z 12006KT 16/10 A3006 RMK A01 T01600095  RH  065%=      5-min Rain = 0
KSW1 121100Z 12005KT 16/10 A3006 RMK A01 T01600095  RH  065%=      5-min Rain = 0
KSW1 121101Z 12006KT 16/10 A3006 RMK A01 T01600095  RH  066%=      5-min Rain = 0
KSW1 121102Z 12005KT 16/10 A3006 RMK A01 T01600095  RH  066%=      5-min Rain = 0
KSW1 121103Z 12005KT 16/10 A3006 RMK A01 T01600096  RH  066%=      5-min Rain = 0
KSW1 121104Z 13005KT 16/10 A3006 RMK A01 T01600095  RH  065%=      5-min Rain = 0
KSW1 121105Z 13005KT 16/10 A3006 RMK A01 T01600095  RH  065%=      5-min Rain = 0
KSW1 121106Z 13005KT 16/10 A3006 RMK A01 T01600095  RH  065%=      5-min Rain = 0
KSW1 121107Z 13005KT 16/10 A3006 RMK A01 T01600095  RH  066%=      5-min Rain = 0
KSW1 121108Z 13005KT 16/10 A3006 RMK A01 T01590095  RH  066%=      5-min Rain = 0
KSW1 121109Z 13004KT 16/10 A3006 RMK A01 T01590095  RH  066%=      5-min Rain = 0
KSW1 121110Z 14004KT 16/10 A3006 RMK A01 T01600096  RH  066%=      5-min Rain = 0
KSW1 121111Z 14004KT 16/10 A3006 RMK A01 T01590095  RH  066%=      5-min Rain = 0
KSW1 121112Z 14004KT 16/10 A3006 RMK A01 T01590095  RH  066%=      5-min Rain = 0
KSW1 121113Z 14004KT 16/10 A3006 RMK A01 T01600095  RH  066%=      5-min Rain = 0
KSW1 121114Z 14004KT 16/10 A3006 RMK A01 T01600095  RH  065%=      5-min Rain = 0
KSW1 121115Z 14004KT 16/10 A3006 RMK A01 T01600095  RH  065%=      5-min Rain = 0
KSW1 121116Z 15003KT 16/10 A3006 RMK A01 T01610096  RH  065%=      5-min Rain = 0
KSW1 121117Z 15003KT 16/10 A3006 RMK A01 T01610095  RH  065%=      5-min Rain = 0
KSW1 121118Z 15003KT 16/10 A3006 RMK A01 T01610095  RH  065%=      5-min Rain = 0
KSW1 121119Z 15003KT 16/10 A3006 RMK A01 T01620095  RH  065%=      5-min Rain = 0
KSW1 121120Z 15003KT 16/10 A3006 RMK A01 T01620095  RH  065%=      5-min Rain = 0
KSW1 121121Z 15003KT 16/10 A3006 RMK A01 T01620095  RH  065%=      5-min Rain = 0
KSW1 121122Z 16003KT 16/10 A3006 RMK A01 T01620095  RH  065%=      5-min Rain = 0
KSW1 121123Z 16003KT 16/10 A3006 RMK A01 T01620096  RH  065%=      5-min Rain = 0
KSW1 121124Z 16003KT 16/10 A3006 RMK A01 T01620095  RH  065%=      5-min Rain = 0
KSW1 121125Z 17002KT 16/10 A3006 RMK A01 T01620095  RH  065%=      5-min Rain = 0
KSW1 121126Z 16002KT 16/10 A3006 RMK A01 T01610095  RH  065%=      5-min Rain = 0
KSW1 121127Z 16002KT 16/10 A3006 RMK A01 T01600095  RH  065%=      5-min Rain = 0
KSW1 121128Z 15002KT 16/10 A3006 RMK A01 T01590095  RH  066%=      5-min Rain = 0
KSW1 121129Z 16001KT 16/10 A3006 RMK A01 T01570095  RH  066%=      5-min Rain = 0
KSW1 121130Z 16002KT 16/09 A3006 RMK A01 T01560094  RH  067%=      5-min Rain = 0
KSW1 121131Z 16002KT 16/09 A3006 RMK A01 T01550094  RH  067%=      5-min Rain = 0
KSW1 121132Z 16002KT 15/09 A3006 RMK A01 T01530093  RH  068%=      5-min Rain = 0
KSW1 121133Z 16002KT 15/09 A3006 RMK A01 T01520094  RH  068%=      5-min Rain = 0
KSW1 121134Z 16002KT 15/10 A3006 RMK A01 T01520095  RH  069%=      5-min Rain = 0
KSW1 121135Z 16002KT 15/10 A3006 RMK A01 T01510095  RH  069%=      5-min Rain = 0
KSW1 121136Z 16002KT 15/09 A3006 RMK A01 T01510094  RH  069%=      5-min Rain = 0
KSW1 121137Z 16002KT 15/09 A3006 RMK A01 T01500094  RH  069%=      5-min Rain = 0
KSW1 121138Z 16002KT 15/09 A3007 RMK A01 T01500094  RH  069%=      5-min Rain = 0
KSW1 121139Z 15002KT 15/09 A3007 RMK A01 T01500094  RH  069%=      5-min Rain = 0
KSW1 121140Z 15002KT 15/09 A3007 RMK A01 T01500094  RH  069%=      5-min Rain = 0
KSW1 121141Z 15002KT 15/09 A3007 RMK A01 T01500094  RH  069%=      5-min Rain = 0
KSW1 121142Z 14002KT 15/09 A3007 RMK A01 T01500094  RH  069%=      5-min Rain = 0
KSW1 121143Z 14002KT 15/10 A3007 RMK A01 T01500095  RH  069%=      5-min Rain = 0
KSW1 121144Z 15002KT 15/10 A3007 RMK A01 T01510095  RH  069%=      5-min Rain = 0
KSW1 121145Z 16002KT 15/10 A3007 RMK A01 T01510095  RH  069%=      5-min Rain = 0
KSW1 121146Z 16002KT 15/09 A3007 RMK A01 T01510094  RH  069%=      5-min Rain = 0
KSW1 121147Z 15002KT 15/10 A3007 RMK A01 T01510095  RH  069%=      5-min Rain = 0
KSW1 121148Z 16002KT 15/10 A3007 RMK A01 T01510095  RH  069%=      5-min Rain = 0
KSW1 121149Z 16002KT 15/09 A3007 RMK A01 T01510094  RH  069%=      5-min Rain = 0
KSW1 121150Z 16002KT 15/09 A3007 RMK A01 T01510094  RH  069%=      5-min Rain = 0
KSW1 121151Z 15002KT 15/10 A3007 RMK A01 T01510095  RH  069%=      5-min Rain = 0
KSW1 121152Z 15002KT 15/10 A3007 RMK A01 T01510095  RH  069%=      5-min Rain = 0
KSW1 121153Z 15002KT 15/10 A3007 RMK A01 T01510095  RH  069%=      5-min Rain = 0
KSW1 121154Z 15002KT 15/10 A3007 RMK A01 T01510095  RH  069%=      5-min Rain = 0
KSW1 121155Z 14002KT 15/10 A3007 RMK A01 T01510095  RH  069%=      5-min Rain = 0
KSW1 121156Z 13002KT 15/10 A3007 RMK A01 T01510095  RH  069%=      5-min Rain = 0
KSW1 121157Z 13003KT 15/09 A3007 RMK A01 T01500094  RH  069%=      5-min Rain = 0
KSW1 121158Z 13003KT 15/09 A3007 RMK A01 T01500094  RH  069%=      5-min Rain = 0
KSW1 121159Z 13003KT 15/10 A3007 RMK A01 T01500095  RH  069%=      5-min Rain = 0
KSW1 121200Z 13004KT 15/10 A3007 RMK A01 T01510095  RH  069%=      5-min Rain = 0
KSW1 121201Z 13004KT 15/10 A3007 RMK A01 T01510095  RH  069%=      5-min Rain = 0
KSW1 121202Z 13004KT 15/09 A3007 RMK A01 T01510094  RH  069%=      5-min Rain = 0
KSW1 121203Z 14004KT 15/10 A3007 RMK A01 T01510095  RH  069%=      5-min Rain = 0
KSW1 121204Z 14004KT 15/10 A3007 RMK A01 T01510095  RH  069%=      5-min Rain = 0
KSW1 121205Z 14004KT 15/10 A3007 RMK A01 T01510095  RH  069%=      5-min Rain = 0
KSW1 121206Z 14004KT 15/10 A3007 RMK A01 T01510095  RH  069%=      5-min Rain = 0
KSW1 121207Z 14004KT 15/10 A3007 RMK A01 T01530095  RH  069%=      5-min Rain = 0
KSW1 121208Z 14004KT 15/10 A3007 RMK A01 T01530095  RH  068%=      5-min Rain = 0
KSW1 121209Z 14004KT 15/10 A3007 RMK A01 T01540095  RH  068%=      5-min Rain = 0
KSW1 121210Z 14004KT 15/10 A3007 RMK A01 T01540095  RH  068%=      5-min Rain = 0
KSW1 121211Z 14004KT 15/10 A3007 RMK A01 T01540095  RH  068%=      5-min Rain = 0
KSW1 121212Z 14004KT 15/10 A3007 RMK A01 T01540095  RH  068%=      5-min Rain = 0
KSW1 121213Z 14004KT 16/10 A3007 RMK A01 T01550095  RH  067%=      5-min Rain = 0
KSW1 121214Z 14004KT 16/10 A3007 RMK A01 T01550095  RH  067%=      5-min Rain = 0
KSW1 121215Z 14003KT 16/10 A3007 RMK A01 T01560095  RH  067%=      5-min Rain = 0
KSW1 121216Z 14003KT 16/10 A3007 RMK A01 T01560095  RH  067%=      5-min Rain = 0
KSW1 121217Z 14003KT 16/10 A3007 RMK A01 T01560095  RH  067%=      5-min Rain = 0
KSW1 121218Z 14003KT 16/10 A3007 RMK A01 T01560095  RH  067%=      5-min Rain = 0
KSW1 121219Z 15003KT 16/10 A3007 RMK A01 T01560095  RH  067%=      5-min Rain = 0
KSW1 121220Z 15003KT 16/10 A3007 RMK A01 T01560095  RH  067%=      5-min Rain = 0
KSW1 121221Z 15003KT 16/10 A3007 RMK A01 T01570095  RH  067%=      5-min Rain = 0
KSW1 121222Z 16003KT 16/10 A3007 RMK A01 T01570095  RH  067%=      5-min Rain = 0
KSW1 121223Z 15003KT 16/10 A3007 RMK A01 T01570096  RH  067%=      5-min Rain = 0
KSW1 121224Z 15003KT 16/10 A3007 RMK A01 T01580095  RH  066%=      5-min Rain = 0
KSW1 121225Z 16003KT 16/10 A3007 RMK A01 T01580095  RH  066%=      5-min Rain = 0
KSW1 121226Z 16002KT 16/10 A3007 RMK A01 T01580095  RH  066%=      5-min Rain = 0
KSW1 121227Z 16002KT 16/10 A3007 RMK A01 T01590095  RH  066%=      5-min Rain = 0
KSW1 121228Z 16002KT 16/10 A3007 RMK A01 T01590095  RH  066%=      5-min Rain = 0
KSW1 121229Z 15002KT 16/10 A3007 RMK A01 T01590096  RH  066%=      5-min Rain = 0
KSW1 121230Z 14002KT 16/10 A3007 RMK A01 T01590095  RH  066%=      5-min Rain = 0
KSW1 121231Z 14003KT 16/10 A3007 RMK A01 T01590096  RH  066%=      5-min Rain = 0
KSW1 121232Z 13003KT 16/10 A3007 RMK A01 T01590095  RH  066%=      5-min Rain = 0
KSW1 121233Z 14002KT 16/10 A3007 RMK A01 T01590096  RH  066%=      5-min Rain = 0
KSW1 121234Z 14003KT 16/10 A3007 RMK A01 T01600096  RH  066%=      5-min Rain = 0
KSW1 121235Z 14003KT 16/10 A3007 RMK A01 T01590096  RH  066%=      5-min Rain = 0
KSW1 121236Z 15003KT 16/10 A3007 RMK A01 T01590096  RH  066%=      5-min Rain = 0
KSW1 121237Z 15003KT 16/10 A3007 RMK A01 T01590096  RH  066%=      5-min Rain = 0
KSW1 121238Z 15003KT 16/10 A3007 RMK A01 T01590096  RH  066%=      5-min Rain = 0
KSW1 121239Z 15003KT 16/10 A3007 RMK A01 T01590095  RH  066%=      5-min Rain = 0
KSW1 121240Z 15003KT 16/10 A3007 RMK A01 T01590096  RH  066%=      5-min Rain = 0
KSW1 121241Z 15003KT 16/10 A3007 RMK A01 T01600096  RH  066%=      5-min Rain = 0
KSW1 121242Z 15003KT 16/10 A3007 RMK A01 T01600096  RH  065%=      5-min Rain = 0
KSW1 121243Z 15003KT 16/10 A3007 RMK A01 T01610096  RH  065%=      5-min Rain = 0
KSW1 121244Z 15004KT 16/10 A3007 RMK A01 T01610096  RH  065%=      5-min Rain = 0
KSW1 121245Z 15003KT 16/10 A3007 RMK A01 T01620096  RH  065%=      5-min Rain = 0
KSW1 121246Z 16003KT 16/10 A3007 RMK A01 T01620096  RH  065%=      5-min Rain = 0
KSW1 121247Z 16003KT 16/10 A3007 RMK A01 T01630096  RH  065%=      5-min Rain = 0
KSW1 121248Z 16003KT 16/10 A3007 RMK A01 T01630096  RH  065%=      5-min Rain = 0
KSW1 121249Z 16003KT 16/10 A3007 RMK A01 T01630096  RH  064%=      5-min Rain = 0
KSW1 121250Z 17003KT 16/10 A3007 RMK A01 T01630096  RH  064%=      5-min Rain = 0
KSW1 121251Z 17003KT 16/10 A3007 RMK A01 T01630096  RH  064%=      5-min Rain = 0
KSW1 121252Z 17003KT 16/10 A3007 RMK A01 T01630096  RH  064%=      5-min Rain = 0
KSW1 121253Z 17003KT 16/10 A3007 RMK A01 T01630096  RH  064%=      5-min Rain = 0
KSW1 121254Z 17003KT 16/10 A3007 RMK A01 T01630097  RH  065%=      5-min Rain = 0
KSW1 121255Z 18004KT 16/10 A3007 RMK A01 T01620097  RH  065%=      5-min Rain = 0
KSW1 121256Z 18003KT 16/10 A3007 RMK A01 T01620097  RH  065%=      5-min Rain = 0
KSW1 121257Z 17003KT 16/10 A3007 RMK A01 T01620097  RH  065%=      5-min Rain = 0
KSW1 121258Z 17003KT 16/10 A3007 RMK A01 T01620097  RH  065%=      5-min Rain = 0
KSW1 121259Z 18003KT 16/10 A3007 RMK A01 T01630097  RH  065%=      5-min Rain = 0
KSW1 121300Z 18003KT 16/10 A3007 RMK A01 T01630097  RH  065%=      5-min Rain = 0
KSW1 121301Z 18003KT 16/10 A3007 RMK A01 T01630097  RH  065%=      5-min Rain = 0
KSW1 121302Z 18003KT 16/10 A3007 RMK A01 T01630097  RH  065%=      5-min Rain = 0
KSW1 121303Z 18003KT 16/10 A3007 RMK A01 T01620098  RH  065%=      5-min Rain = 0
KSW1 121304Z 18003KT 16/10 A3007 RMK A01 T01620097  RH  065%=      5-min Rain = 0
KSW1 121305Z 18002KT 16/10 A3007 RMK A01 T01620098  RH  066%=      5-min Rain = 0
KSW1 121306Z 19002KT 16/10 A3007 RMK A01 T01620098  RH  066%=      5-min Rain = 0
KSW1 121307Z 19002KT 16/10 A3007 RMK A01 T01620098  RH  065%=      5-min Rain = 0
KSW1 121308Z 19002KT 16/10 A3007 RMK A01 T01630098  RH  066%=      5-min Rain = 0
KSW1 121309Z 18002KT 16/10 A3007 RMK A01 T01630099  RH  066%=      5-min Rain = 0
KSW1 121310Z 19002KT 16/10 A3007 RMK A01 T01640099  RH  066%=      5-min Rain = 0
KSW1 121311Z 19001KT 16/10 A3007 RMK A01 T01640098  RH  065%=      5-min Rain = 0
KSW1 121312Z 18001KT 17/10 A3007 RMK A01 T01650099  RH  065%=      5-min Rain = 0
KSW1 121313Z 17001KT 17/10 A3007 RMK A01 T01650100  RH  065%=      5-min Rain = 0
KSW1 121314Z 15001KT 17/10 A3007 RMK A01 T01660100  RH  065%=      5-min Rain = 0
KSW1 121315Z 15001KT 17/10 A3007 RMK A01 T01670101  RH  065%=      5-min Rain = 0
KSW1 121316Z 15001KT 17/10 A3007 RMK A01 T01670102  RH  065%=      5-min Rain = 0
KSW1 121317Z 15001KT 17/10 A3007 RMK A01 T01680102  RH  065%=      5-min Rain = 0
KSW1 121318Z 16002KT 17/10 A3007 RMK A01 T01690103  RH  065%=      5-min Rain = 0
KSW1 121319Z 16002KT 17/10 A3007 RMK A01 T01700103  RH  065%=      5-min Rain = 0
KSW1 121320Z 15002KT 17/10 A3007 RMK A01 T01710104  RH  065%=      5-min Rain = 0
KSW1 121321Z 16002KT 17/11 A3007 RMK A01 T01730105  RH  065%=      5-min Rain = 0
KSW1 121322Z 17002KT 17/11 A3007 RMK A01 T01740105  RH  064%=      5-min Rain = 0
KSW1 121323Z 18002KT 18/10 A3007 RMK A01 T01750104  RH  063%=      5-min Rain = 0
KSW1 121324Z 17002KT 18/10 A3007 RMK A01 T01760103  RH  062%=      5-min Rain = 0
KSW1 121325Z 16002KT 18/10 A3007 RMK A01 T01770103  RH  062%=      5-min Rain = 0
KSW1 121326Z 16002KT 18/10 A3007 RMK A01 T01780103  RH  061%=      5-min Rain = 0
KSW1 121327Z 14001KT 18/10 A3007 RMK A01 T01790103  RH  061%=      5-min Rain = 0
KSW1 121328Z 13001KT 18/10 A3007 RMK A01 T01800104  RH  061%=      5-min Rain = 0
KSW1 121329Z 13002KT 18/11 A3007 RMK A01 T01810105  RH  061%=      5-min Rain = 0
KSW1 121330Z 14002KT 18/11 A3007 RMK A01 T01820106  RH  061%=      5-min Rain = 0
KSW1 121331Z 15002KT 18/11 A3007 RMK A01 T01820107  RH  061%=      5-min Rain = 0
KSW1 121332Z 14002KT 18/11 A3007 RMK A01 T01830108  RH  061%=      5-min Rain = 0
KSW1 121333Z 14002KT 19/11 A3007 RMK A01 T01850108  RH  061%=      5-min Rain = 0
KSW1 121334Z 14002KT 19/11 A3007 RMK A01 T01860106  RH  060%=      5-min Rain = 0
KSW1 121335Z 15001KT 19/11 A3007 RMK A01 T01880108  RH  060%=      5-min Rain = 0
KSW1 121336Z 14001KT 19/11 A3007 RMK A01 T01890108  RH  059%=      5-min Rain = 0
KSW1 121337Z 15001KT 19/11 A3007 RMK A01 T01910107  RH  058%=      5-min Rain = 0
KSW1 121338Z 14001KT 19/11 A3007 RMK A01 T01920107  RH  058%=      5-min Rain = 0
KSW1 121339Z 16000KT 19/11 A3007 RMK A01 T01930109  RH  058%=      5-min Rain = 0
KSW1 121340Z 16001KT 19/11 A3007 RMK A01 T01940109  RH  058%=      5-min Rain = 0
KSW1 121341Z 15001KT 20/11 A3007 RMK A01 T01960108  RH  057%=      5-min Rain = 0
KSW1 121342Z 15001KT 20/11 A3007 RMK A01 T01970110  RH  057%=      5-min Rain = 0
KSW1 121343Z 16001KT 20/11 A3007 RMK A01 T01980110  RH  057%=      5-min Rain = 0
KSW1 121344Z 16001KT 20/11 A3007 RMK A01 T01980110  RH  057%=      5-min Rain = 0
KSW1 121345Z 16001KT 20/11 A3007 RMK A01 T01980110  RH  057%=      5-min Rain = 0
KSW1 121346Z 16002KT 20/11 A3007 RMK A01 T01980110  RH  057%=      5-min Rain = 0
KSW1 121347Z 16002KT 20/11 A3007 RMK A01 T01990112  RH  057%=      5-min Rain = 0
KSW1 121348Z 15002KT 20/11 A3007 RMK A01 T02000110  RH  056%=      5-min Rain = 0
KSW1 121349Z 16001KT 20/11 A3007 RMK A01 T02000112  RH  057%=      5-min Rain = 0
KSW1 121350Z 16001KT 20/11 A3007 RMK A01 T02010114  RH  058%=      5-min Rain = 0
KSW1 121351Z 17001KT 20/11 A3007 RMK A01 T02020114  RH  057%=      5-min Rain = 0
KSW1 121352Z 17002KT 20/11 A3007 RMK A01 T02030113  RH  056%=      5-min Rain = 0
KSW1 121353Z 18002KT 20/11 A3007 RMK A01 T02030112  RH  056%=      5-min Rain = 0
KSW1 121354Z 18002KT 20/11 A3007 RMK A01 T02030114  RH  056%=      5-min Rain = 0
KSW1 121355Z 19002KT 20/12 A3007 RMK A01 T02040115  RH  057%=      5-min Rain = 0
KSW1 121356Z 19002KT 20/11 A3007 RMK A01 T02040113  RH  056%=      5-min Rain = 0
KSW1 121357Z 19002KT 21/11 A3007 RMK A01 T02050114  RH  056%=      5-min Rain = 0
KSW1 121358Z 19002KT 21/11 A3008 RMK A01 T02050113  RH  055%=      5-min Rain = 0
KSW1 121359Z 19003KT 21/11 A3008 RMK A01 T02050113  RH  055%=      5-min Rain = 0
KSW1 121400Z 19002KT 21/12 A3008 RMK A01 T02060116  RH  056%=      5-min Rain = 0
KSW1 121401Z 20002KT 21/11 A3008 RMK A01 T02060114  RH  056%=      5-min Rain = 0
KSW1 121402Z 19002KT 21/12 A3008 RMK A01 T02070116  RH  056%=      5-min Rain = 0
KSW1 121403Z 18003KT 21/12 A3008 RMK A01 T02080117  RH  056%=      5-min Rain = 0
KSW1 121404Z 18002KT 21/12 A3008 RMK A01 T02090115  RH  055%=      5-min Rain = 0
KSW1 121405Z 18002KT 21/12 A3008 RMK A01 T02090117  RH  055%=      5-min Rain = 0
KSW1 121406Z 17003KT 21/12 A3008 RMK A01 T02110119  RH  056%=      5-min Rain = 0
KSW1 121407Z 18002KT 21/12 A3008 RMK A01 T02130117  RH  054%=      5-min Rain = 0
KSW1 121408Z 18002KT 21/12 A3008 RMK A01 T02130116  RH  054%=      5-min Rain = 0
KSW1 121409Z 19002KT 21/12 A3008 RMK A01 T02140118  RH  054%=      5-min Rain = 0
KSW1 121410Z 19003KT 22/12 A3008 RMK A01 T02150116  RH  053%=      5-min Rain = 0
KSW1 121411Z 19002KT 22/12 A3008 RMK A01 T02150117  RH  053%=      5-min Rain = 0
KSW1 121412Z 19003KT 22/12 A3007 RMK A01 T02160117  RH  053%=      5-min Rain = 0
KSW1 121413Z 20003KT 22/12 A3007 RMK A01 T02160118  RH  053%=      5-min Rain = 0
KSW1 121414Z 19003KT 22/12 A3007 RMK A01 T02170118  RH  053%=      5-min Rain = 0
KSW1 121415Z 19003KT 22/12 A3007 RMK A01 T02180117  RH  052%=      5-min Rain = 0
KSW1 121416Z 19003KT 22/12 A3007 RMK A01 T02200117  RH  052%=      5-min Rain = 0
KSW1 121417Z 19003KT 22/12 A3007 RMK A01 T02200118  RH  052%=      5-min Rain = 0
KSW1 121418Z 19004KT 22/12 A3007 RMK A01 T02210118  RH  052%=      5-min Rain = 0
KSW1 121419Z 20004KT 22/11 A3007 RMK A01 T02210114  RH  051%=      5-min Rain = 0
KSW1 121420Z 20004KT 22/11 A3007 RMK A01 T02220114  RH  050%=      5-min Rain = 0
KSW1 121421Z 20005KT 22/11 A3007 RMK A01 T02220112  RH  049%=      5-min Rain = 0
KSW1 121422Z 20004KT 22/11 A3007 RMK A01 T02230112  RH  050%=      5-min Rain = 0
KSW1 121423Z 21004KT 22/11 A3007 RMK A01 T02230113  RH  050%=      5-min Rain = 0
KSW1 121424Z 21004KT 22/11 A3007 RMK A01 T02230112  RH  049%=      5-min Rain = 0
KSW1 121425Z 20004KT 22/11 A3007 RMK A01 T02240112  RH  049%=      5-min Rain = 0
KSW1 121426Z 20005KT 23/11 A3007 RMK A01 T02250111  RH  049%=      5-min Rain = 0
KSW1 121427Z 19005KT 23/11 A3008 RMK A01 T02260109  RH  048%=      5-min Rain = 0
KSW1 121428Z 20004KT 23/11 A3008 RMK A01 T02250109  RH  048%=      5-min Rain = 0
KSW1 121429Z 19005KT 23/11 A3008 RMK A01 T02260110  RH  048%=      5-min Rain = 0
KSW1 121430Z 18004KT 23/11 A3008 RMK A01 T02260112  RH  049%=      5-min Rain = 0
KSW1 121431Z 20005KT 23/11 A3008 RMK A01 T02270113  RH  049%=      5-min Rain = 0
KSW1 121432Z 22004KT 23/11 A3008 RMK A01 T02280111  RH  048%=      5-min Rain = 0
KSW1 121433Z 22004KT 23/11 A3008 RMK A01 T02280112  RH  048%=      5-min Rain = 0
KSW1 121434Z 22004KT 23/11 A3007 RMK A01 T02290112  RH  047%=      5-min Rain = 0
KSW1 121435Z 22005KT 23/11 A3007 RMK A01 T02300110  RH  047%=      5-min Rain = 0
KSW1 121436Z 22006KT 23/11 A3007 RMK A01 T02310106  RH  045%=      5-min Rain = 0
KSW1 121437Z 22006KT 23/11 A3007 RMK A01 T02320108  RH  045%=      5-min Rain = 0
KSW1 121438Z 21005KT 23/11 A3007 RMK A01 T02320105  RH  044%=      5-min Rain = 0
KSW1 121439Z 22004KT 23/11 A3007 RMK A01 T02330106  RH  045%=      5-min Rain = 0
KSW1 121440Z 23005KT 23/11 A3007 RMK A01 T02330107  RH  045%=      5-min Rain = 0
KSW1 121441Z 23006KT 23/11 A3007 RMK A01 T02340107  RH  045%=      5-min Rain = 0
KSW1 121442Z 23005KT 23/11 A3007 RMK A01 T02340107  RH  045%=      5-min Rain = 0
KSW1 121443Z 23004KT 23/11 A3007 RMK A01 T02340108  RH  045%=      5-min Rain = 0
KSW1 121444Z 22003KT 24/11 A3007 RMK A01 T02350109  RH  045%=      5-min Rain = 0
KSW1 121445Z 22003KT 24/11 A3007 RMK A01 T02350108  RH  045%=      5-min Rain = 0
KSW1 121446Z 21003KT 24/11 A3007 RMK A01 T02360109  RH  045%=      5-min Rain = 0
KSW1 121447Z 23004KT 24/11 A3007 RMK A01 T02380112  RH  045%=      5-min Rain = 0
KSW1 121448Z 24005KT 24/11 A3007 RMK A01 T02390110  RH  044%=      5-min Rain = 0
KSW1 121449Z 24005KT 24/11 A3007 RMK A01 T02410109  RH  043%=      5-min Rain = 0
KSW1 121450Z 24005KT 24/11 A3007 RMK A01 T02410107  RH  043%=      5-min Rain = 0
KSW1 121451Z 23003KT 24/11 A3007 RMK A01 T02400108  RH  043%=      5-min Rain = 0
KSW1 121452Z 23004KT 24/11 A3007 RMK A01 T02400109  RH  044%=      5-min Rain = 0
KSW1 121453Z 24003KT 24/11 A3007 RMK A01 T02420110  RH  043%=      5-min Rain = 0
KSW1 121454Z 27005KT 24/11 A3007 RMK A01 T02430111  RH  044%=      5-min Rain = 0
KSW1 121455Z 23005KT 24/11 A3007 RMK A01 T02440111  RH  043%=      5-min Rain = 0
KSW1 121456Z 24005KT 24/11 A3007 RMK A01 T02440108  RH  042%=      5-min Rain = 0
KSW1 121457Z 23005KT 24/11 A3007 RMK A01 T02440111  RH  043%=      5-min Rain = 0
KSW1 121458Z 25005KT 24/11 A3007 RMK A01 T02440110  RH  043%=      5-min Rain = 0
KSW1 121459Z 25006KT 24/11 A3007 RMK A01 T02440111  RH  043%=      5-min Rain = 0
KSW1 121500Z 26006KT 24/11 A3007 RMK A01 T02440107  RH  042%=      5-min Rain = 0
KSW1 121501Z 26006KT 24/11 A3007 RMK A01 T02430107  RH  042%=      5-min Rain = 0
KSW1 121502Z 26006KT 24/11 A3007 RMK A01 T02420106  RH  042%=      5-min Rain = 0
KSW1 121503Z 25006KT 24/11 A3007 RMK A01 T02420107  RH  043%=      5-min Rain = 0
KSW1 121504Z 24006KT 24/11 A3007 RMK A01 T02420107  RH  043%=      5-min Rain = 0
KSW1 121505Z 25006KT 24/11 A3007 RMK A01 T02430106  RH  042%=      5-min Rain = 0
KSW1 121506Z 24006KT 24/11 A3007 RMK A01 T02420107  RH  042%=      5-min Rain = 0
KSW1 121507Z 24006KT 24/11 A3007 RMK A01 T02430108  RH  042%=      5-min Rain = 0
KSW1 121508Z 24005KT 25/11 A3007 RMK A01 T02450109  RH  043%=      5-min Rain = 0
KSW1 121509Z 24005KT 25/11 A3007 RMK A01 T02470111  RH  043%=      5-min Rain = 0
KSW1 121510Z 25005KT 25/11 A3007 RMK A01 T02470109  RH  042%=      5-min Rain = 0
KSW1 121511Z 26007KT 25/11 A3007 RMK A01 T02460108  RH  042%=      5-min Rain = 0
KSW1 121512Z 26006KT 24/11 A3007 RMK A01 T02440109  RH  042%=      5-min Rain = 0
KSW1 121513Z 25005KT 24/11 A3007 RMK A01 T02430111  RH  043%=      5-min Rain = 0
KSW1 121514Z 25005KT 24/11 A3007 RMK A01 T02440108  RH  042%=      5-min Rain = 0
KSW1 121515Z 26003KT 24/11 A3007 RMK A01 T02430109  RH  043%=      5-min Rain = 0
KSW1 121516Z 28005KT 24/11 A3007 RMK A01 T02430113  RH  044%=      5-min Rain = 0
KSW1 121517Z 27005KT 25/12 A3007 RMK A01 T02450115  RH  044%=      5-min Rain = 0
KSW1 121518Z 27005KT 25/11 A3007 RMK A01 T02460113  RH  043%=      5-min Rain = 0
KSW1 121519Z 24004KT 25/11 A3007 RMK A01 T02460114  RH  043%=      5-min Rain = 0
KSW1 121520Z 25005KT 25/11 A3007 RMK A01 T02460113  RH  043%=      5-min Rain = 0
KSW1 121521Z 25003KT 25/11 A3007 RMK A01 T02460109  RH  042%=      5-min Rain = 0
KSW1 121522Z 28006KT 25/11 A3007 RMK A01 T02460110  RH  042%=      5-min Rain = 0
KSW1 121523Z 27005KT 25/11 A3007 RMK A01 T02460111  RH  043%=      5-min Rain = 0
KSW1 121524Z 26004KT 25/11 A3007 RMK A01 T02470114  RH  043%=      5-min Rain = 0
KSW1 121525Z 26005KT 25/11 A3007 RMK A01 T02500111  RH  042%=      5-min Rain = 0
KSW1 121526Z 24005KT 25/11 A3007 RMK A01 T02490112  RH  042%=      5-min Rain = 0
KSW1 121527Z 24003KT 25/11 A3007 RMK A01 T02480112  RH  042%=      5-min Rain = 0
KSW1 121528Z 26004KT 25/11 A3007 RMK A01 T02470114  RH  043%=      5-min Rain = 0
KSW1 121529Z 26005KT 25/11 A3007 RMK A01 T02470113  RH  043%=      5-min Rain = 0
KSW1 121530Z 25004KT 25/11 A3007 RMK A01 T02470112  RH  043%=      5-min Rain = 0
KSW1 121531Z 24005KT 25/11 A3007 RMK A01 T02480112  RH  043%=      5-min Rain = 0
KSW1 121532Z 23004KT 25/11 A3007 RMK A01 T02470112  RH  043%=      5-min Rain = 0
KSW1 121533Z 24004KT 25/11 A3007 RMK A01 T02460111  RH  043%=      5-min Rain = 0
KSW1 121534Z 26004KT 25/11 A3007 RMK A01 T02460114  RH  043%=      5-min Rain = 0
KSW1 121535Z 25005KT 25/11 A3007 RMK A01 T02470113  RH  043%=      5-min Rain = 0
KSW1 121536Z 26006KT 25/11 A3007 RMK A01 T02490112  RH  042%=      5-min Rain = 0
KSW1 121537Z 26006KT 25/11 A3007 RMK A01 T02490114  RH  043%=      5-min Rain = 0
KSW1 121538Z 27005KT 25/11 A3007 RMK A01 T02500109  RH  041%=      5-min Rain = 0
KSW1 121539Z 27005KT 25/11 A3007 RMK A01 T02500111  RH  042%=      5-min Rain = 0
KSW1 121540Z 29004KT 25/11 A3007 RMK A01 T02500112  RH  042%=      5-min Rain = 0
KSW1 121541Z 26006KT 25/11 A3007 RMK A01 T02500111  RH  042%=      5-min Rain = 0
KSW1 121542Z 27005KT 25/11 A3007 RMK A01 T02500109  RH  041%=      5-min Rain = 0
KSW1 121543Z 27003KT 25/11 A3007 RMK A01 T02500109  RH  041%=      5-min Rain = 0
KSW1 121544Z 25005KT 25/11 A3007 RMK A01 T02500110  RH  041%=      5-min Rain = 0
KSW1 121545Z 25004KT 25/11 A3007 RMK A01 T02500110  RH  041%=      5-min Rain = 0
KSW1 121546Z 25006KT 25/11 A3007 RMK A01 T02500110  RH  041%=      5-min Rain = 0
KSW1 121547Z 24005KT 25/11 A3007 RMK A01 T02500109  RH  041%=      5-min Rain = 0
KSW1 121548Z 26004KT 25/11 A3007 RMK A01 T02500109  RH  041%=      5-min Rain = 0
KSW1 121549Z 26004KT 25/11 A3007 RMK A01 T02530111  RH  041%=      5-min Rain = 0
KSW1 121550Z 25004KT 25/11 A3007 RMK A01 T02540107  RH  040%=      5-min Rain = 0
KSW1 121551Z 24003KT 26/11 A3007 RMK A01 T02550107  RH  039%=      5-min Rain = 0
KSW1 121552Z 24004KT 26/11 A3007 RMK A01 T02550111  RH  040%=      5-min Rain = 0
KSW1 121553Z 25005KT 26/11 A3007 RMK A01 T02570113  RH  041%=      5-min Rain = 0
KSW1 121554Z 25005KT 26/11 A3007 RMK A01 T02580113  RH  040%=      5-min Rain = 0
KSW1 121555Z 25004KT 26/11 A3007 RMK A01 T02570111  RH  040%=      5-min Rain = 0
KSW1 121556Z 24003KT 26/11 A3007 RMK A01 T02550112  RH  041%=      5-min Rain = 0
KSW1 121557Z 25005KT 26/11 A3007 RMK A01 T02550114  RH  041%=      5-min Rain = 0
KSW1 121558Z 24005KT 26/11 A3007 RMK A01 T02570114  RH  041%=      5-min Rain = 0
KSW1 121559Z 24004KT 26/11 A3007 RMK A01 T02570113  RH  041%=      5-min Rain = 0
KSW1 121600Z 23003KT 26/11 A3007 RMK A01 T02570114  RH  041%=      5-min Rain = 0
KSW1 121601Z 24002KT 26/11 A3007 RMK A01 T02570113  RH  041%=      5-min Rain = 0
KSW1 121602Z 25003KT 26/12 A3007 RMK A01 T02570115  RH  041%=      5-min Rain = 0
KSW1 121603Z 24004KT 26/12 A3007 RMK A01 T02600117  RH  041%=      5-min Rain = 0
KSW1 121604Z 26005KT 26/11 A3007 RMK A01 T02630114  RH  039%=      5-min Rain = 0
KSW1 121605Z 28005KT 26/11 A3007 RMK A01 T02640112  RH  039%=      5-min Rain = 0
KSW1 121606Z 27005KT 26/11 A3007 RMK A01 T02640111  RH  038%=      5-min Rain = 0
KSW1 121607Z 27004KT 26/11 A3007 RMK A01 T02640111  RH  038%=      5-min Rain = 0
KSW1 121608Z 27003KT 26/11 A3007 RMK A01 T02620109  RH  038%=      5-min Rain = 0
KSW1 121609Z 29002KT 26/11 A3007 RMK A01 T02600110  RH  039%=      5-min Rain = 0
KSW1 121610Z 25005KT 26/11 A3007 RMK A01 T02600114  RH  040%=      5-min Rain = 0
KSW1 121611Z 27004KT 26/11 A3007 RMK A01 T02620112  RH  039%=      5-min Rain = 0
KSW1 121612Z 28004KT 26/11 A3007 RMK A01 T02620114  RH  039%=      5-min Rain = 0
KSW1 121613Z 29005KT 26/11 A3007 RMK A01 T02620113  RH  039%=      5-min Rain = 0
KSW1 121614Z 29005KT 27/11 A3007 RMK A01 T02650113  RH  039%=      5-min Rain = 0
KSW1 121615Z 30003KT 27/11 A3007 RMK A01 T02660114  RH  039%=      5-min Rain = 0
KSW1 121616Z 35003KT 27/11 A3007 RMK A01 T02670109  RH  037%=      5-min Rain = 0
KSW1 121617Z 35003KT 27/11 A3007 RMK A01 T02670110  RH  038%=      5-min Rain = 0
KSW1 121618Z 26003KT 27/11 A3007 RMK A01 T02670114  RH  038%=      5-min Rain = 0
KSW1 121619Z 27004KT 27/11 A3007 RMK A01 T02690111  RH  037%=      5-min Rain = 0
KSW1 121620Z 29006KT 27/11 A3007 RMK A01 T02680112  RH  038%=      5-min Rain = 0
KSW1 121621Z 29004KT 27/11 A3007 RMK A01 T02670113  RH  038%=      5-min Rain = 0
KSW1 121622Z 35002KT 27/11 A3007 RMK A01 T02670110  RH  038%=      5-min Rain = 0
KSW1 121623Z 10001KT 27/11 A3007 RMK A01 T02660112  RH  038%=      5-min Rain = 0
KSW1 121624Z 28005KT 27/11 A3007 RMK A01 T02660112  RH  038%=      5-min Rain = 0
KSW1 121625Z 29003KT 27/11 A3007 RMK A01 T02660112  RH  038%=      5-min Rain = 0
KSW1 121626Z 26002KT 26/11 A3007 RMK A01 T02640110  RH  038%=      5-min Rain = 0
KSW1 121627Z 25001KT 26/11 A3007 RMK A01 T02630110  RH  038%=      5-min Rain = 0
KSW1 121628Z 17001KT 26/11 A3007 RMK A01 T02630111  RH  038%=      5-min Rain = 0
KSW1 121629Z 23003KT 27/11 A3007 RMK A01 T02650114  RH  039%=      5-min Rain = 0
KSW1 121630Z 22003KT 27/11 A3007 RMK A01 T02660111  RH  038%=      5-min Rain = 0
KSW1 121631Z 20003KT 27/11 A3007 RMK A01 T02650111  RH  038%=      5-min Rain = 0
KSW1 121632Z 21000KT 26/11 A3007 RMK A01 T02640114  RH  039%=      5-min Rain = 0
KSW1 121633Z 31003KT 27/11 A3007 RMK A01 T02670113  RH  038%=      5-min Rain = 0
KSW1 121634Z 32004KT 27/11 A3007 RMK A01 T02680111  RH  037%=      5-min Rain = 0
KSW1 121635Z 32005KT 27/11 A3007 RMK A01 T02670111  RH  038%=      5-min Rain = 0
KSW1 121636Z 31005KT 27/11 A3007 RMK A01 T02670112  RH  038%=      5-min Rain = 0
KSW1 121637Z 32003KT 27/11 A3007 RMK A01 T02680109  RH  037%=      5-min Rain = 0
KSW1 121638Z 34002KT 27/11 A3007 RMK A01 T02680110  RH  037%=      5-min Rain = 0
KSW1 121639Z 34000KT 27/11 A3007 RMK A01 T02670108  RH  037%=      5-min Rain = 0
KSW1 121640Z 26001KT 27/11 A3007 RMK A01 T02670111  RH  038%=      5-min Rain = 0
KSW1 121641Z 28001KT 27/11 A3007 RMK A01 T02690111  RH  037%=      5-min Rain = 0
KSW1 121642Z 35002KT 27/11 A3006 RMK A01 T02700113  RH  038%=      5-min Rain = 0
KSW1 121643Z 00003KT 27/12 A3006 RMK A01 T02720117  RH  038%=      5-min Rain = 0
KSW1 121644Z 36003KT 28/12 A3006 RMK A01 T02750115  RH  037%=      5-min Rain = 0
KSW1 121645Z 03002KT 28/12 A3006 RMK A01 T02750116  RH  037%=      5-min Rain = 0
KSW1 121646Z 36003KT 28/12 A3006 RMK A01 T02750118  RH  038%=      5-min Rain = 0
KSW1 121647Z 34003KT 28/12 A3006 RMK A01 T02760115  RH  037%=      5-min Rain = 0
KSW1 121648Z 33004KT 28/11 A3006 RMK A01 T02760113  RH  036%=      5-min Rain = 0
KSW1 121649Z 00003KT 27/12 A3006 RMK A01 T02740116  RH  037%=      5-min Rain = 0
KSW1 121650Z 29003KT 28/12 A3006 RMK A01 T02750117  RH  037%=      5-min Rain = 0
KSW1 121651Z 31005KT 28/12 A3006 RMK A01 T02760115  RH  037%=      5-min Rain = 0
KSW1 121652Z 33005KT 28/12 A3006 RMK A01 T02770117  RH  037%=      5-min Rain = 0
KSW1 121653Z 33005KT 28/11 A3006 RMK A01 T02760114  RH  037%=      5-min Rain = 0
KSW1 121654Z 34003KT 27/12 A3006 RMK A01 T02740118  RH  038%=      5-min Rain = 0
KSW1 121655Z 29003KT 28/12 A3006 RMK A01 T02750117  RH  037%=      5-min Rain = 0
KSW1 121656Z 35002KT 28/12 A3006 RMK A01 T02770119  RH  037%=      5-min Rain = 0
KSW1 121657Z 29003KT 28/12 A3006 RMK A01 T02790116  RH  036%=      5-min Rain = 0
KSW1 121658Z 26006KT 28/12 A3006 RMK A01 T02780115  RH  036%=      5-min Rain = 0
KSW1 121659Z 27007KT 28/12 A3006 RMK A01 T02770115  RH  037%=      5-min Rain = 0
KSW1 121700Z 27005KT 28/11 A3006 RMK A01 T02760114  RH  036%=      5-min Rain = 0
KSW1 121701Z 26003KT 27/11 A3006 RMK A01 T02730112  RH  037%=      5-min Rain = 0
KSW1 121702Z 24001KT 27/11 A3006 RMK A01 T02710113  RH  037%=      5-min Rain = 0
KSW1 121703Z 24001KT 27/11 A3006 RMK A01 T02720114  RH  037%=      5-min Rain = 0
KSW1 121704Z 28005KT 27/12 A3006 RMK A01 T02740115  RH  037%=      5-min Rain = 0
KSW1 121705Z 25003KT 28/11 A3006 RMK A01 T02750114  RH  037%=      5-min Rain = 0
KSW1 121706Z 27006KT 28/12 A3006 RMK A01 T02760117  RH  037%=      5-min Rain = 0
KSW1 121707Z 27005KT 28/12 A3006 RMK A01 T02790117  RH  037%=      5-min Rain = 0
KSW1 121708Z 26003KT 28/11 A3006 RMK A01 T02790114  RH  036%=      5-min Rain = 0
KSW1 121709Z 21002KT 28/11 A3006 RMK A01 T02770113  RH  036%=      5-min Rain = 0
KSW1 121710Z 26004KT 28/12 A3006 RMK A01 T02760115  RH  037%=      5-min Rain = 0
KSW1 121711Z 23003KT 28/11 A3005 RMK A01 T02760113  RH  036%=      5-min Rain = 0
KSW1 121712Z 30002KT 28/12 A3005 RMK A01 T02750115  RH  037%=      5-min Rain = 0
KSW1 121713Z 32005KT 28/12 A3005 RMK A01 T02760117  RH  037%=      5-min Rain = 0
KSW1 121714Z 35002KT 28/11 A3005 RMK A01 T02770114  RH  036%=      5-min Rain = 0
KSW1 121715Z 10000KT 28/11 A3005 RMK A01 T02770113  RH  036%=      5-min Rain = 0
KSW1 121716Z 11002KT 28/12 A3005 RMK A01 T02770115  RH  036%=      5-min Rain = 0
KSW1 121717Z 14002KT 28/11 A3005 RMK A01 T02780114  RH  036%=      5-min Rain = 0
KSW1 121718Z 17001KT 28/11 A3005 RMK A01 T02780112  RH  036%=      5-min Rain = 0
KSW1 121719Z 30003KT 28/11 A3005 RMK A01 T02770113  RH  036%=      5-min Rain = 0
KSW1 121720Z 30003KT 28/11 A3005 RMK A01 T02780114  RH  036%=      5-min Rain = 0
KSW1 121721Z 29004KT 28/11 A3005 RMK A01 T02770114  RH  036%=      5-min Rain = 0
KSW1 121722Z 28006KT 28/12 A3005 RMK A01 T02770116  RH  037%=      5-min Rain = 0
KSW1 121723Z 28005KT 28/12 A3005 RMK A01 T02780116  RH  036%=      5-min Rain = 0
KSW1 121724Z 28004KT 28/12 A3005 RMK A01 T02790116  RH  036%=      5-min Rain = 0
KSW1 121725Z 32006KT 28/12 A3005 RMK A01 T02800116  RH  036%=      5-min Rain = 0
KSW1 121726Z 31005KT 28/11 A3005 RMK A01 T02780114  RH  036%=      5-min Rain = 0
KSW1 121727Z 30005KT 28/12 A3005 RMK A01 T02780115  RH  036%=      5-min Rain = 0
KSW1 121728Z 31006KT 28/11 A3005 RMK A01 T02790114  RH  036%=      5-min Rain = 0
KSW1 121729Z 32005KT 28/12 A3005 RMK A01 T02800115  RH  036%=      5-min Rain = 0
KSW1 121730Z 34006KT 28/12 A3005 RMK A01 T02800116  RH  036%=      5-min Rain = 0
KSW1 121731Z 32006KT 28/11 A3005 RMK A01 T02810114  RH  035%=      5-min Rain = 0
KSW1 121732Z 33007KT 28/12 A3005 RMK A01 T02790116  RH  036%=      5-min Rain = 0
KSW1 121733Z 30004KT 28/12 A3005 RMK A01 T02800115  RH  036%=      5-min Rain = 0
KSW1 121734Z 28002KT 28/11 A3005 RMK A01 T02800114  RH  036%=      5-min Rain = 0
KSW1 121735Z 24001KT 28/11 A3005 RMK A01 T02800113  RH  035%=      5-min Rain = 0
KSW1 121736Z 26001KT 28/11 A3005 RMK A01 T02800114  RH  036%=      5-min Rain = 0
KSW1 121737Z 06001KT 28/12 A3005 RMK A01 T02810117  RH  036%=      5-min Rain = 0
KSW1 121738Z 07002KT 28/12 A3005 RMK A01 T02840117  RH  036%=      5-min Rain = 0
KSW1 121739Z 14001KT 29/12 A3005 RMK A01 T02860117  RH  035%=      5-min Rain = 0
KSW1 121740Z 24003KT 29/12 A3004 RMK A01 T02870116  RH  035%=      5-min Rain = 0
KSW1 121741Z 24005KT 29/12 A3004 RMK A01 T02880116  RH  035%=      5-min Rain = 0
KSW1 121742Z 24004KT 29/12 A3004 RMK A01 T02860115  RH  035%=      5-min Rain = 0
KSW1 121743Z 22002KT 29/11 A3004 RMK A01 T02850114  RH  035%=      5-min Rain = 0
KSW1 121744Z 24002KT 28/12 A3004 RMK A01 T02830115  RH  035%=      5-min Rain = 0
KSW1 121745Z 27004KT 28/12 A3004 RMK A01 T02840117  RH  035%=      5-min Rain = 0
KSW1 121746Z 27006KT 29/12 A3004 RMK A01 T02860118  RH  035%=      5-min Rain = 0
KSW1 121747Z 25004KT 29/12 A3004 RMK A01 T02880115  RH  034%=      5-min Rain = 0
KSW1 121748Z 15002KT 29/11 A3004 RMK A01 T02860114  RH  034%=      5-min Rain = 0
KSW1 121749Z 09002KT 28/11 A3004 RMK A01 T02830112  RH  035%=      5-min Rain = 0
KSW1 121750Z 07001KT 28/12 A3004 RMK A01 T02820115  RH  035%=      5-min Rain = 0
KSW1 121751Z 33001KT 28/12 A3004 RMK A01 T02830115  RH  035%=      5-min Rain = 0
KSW1 121752Z 31003G9KT 29/12 A3004 RMK A01 T02850118  RH  035%=      5-min Rain = 0
KSW1 121753Z 30006KT 29/12 A3004 RMK A01 T02870117  RH  035%=      5-min Rain = 0
KSW1 121754Z 30005KT 29/12 A3004 RMK A01 T02870115  RH  034%=      5-min Rain = 0
KSW1 121755Z 30005KT 29/12 A3004 RMK A01 T02870118  RH  035%=      5-min Rain = 0
KSW1 121756Z 31006KT 29/12 A3004 RMK A01 T02880119  RH  035%=      5-min Rain = 0
KSW1 121757Z 32007KT 29/12 A3004 RMK A01 T02910118  RH  034%=      5-min Rain = 0
KSW1 121758Z 33005KT 29/12 A3004 RMK A01 T02910117  RH  034%=      5-min Rain = 0
KSW1 121759Z 36002KT 29/12 A3004 RMK A01 T02880116  RH  034%=      5-min Rain = 0
KSW1 121800Z 00002KT 29/12 A3004 RMK A01 T02860119  RH  036%=      5-min Rain = 0
KSW1 121801Z 34005KT 29/12 A3004 RMK A01 T02860118  RH  035%=      5-min Rain = 0
KSW1 121802Z 33003KT 29/12 A3004 RMK A01 T02870118  RH  035%=      5-min Rain = 0
KSW1 121803Z 34005KT 29/12 A3003 RMK A01 T02880118  RH  035%=      5-min Rain = 0
KSW1 121804Z 33004KT 29/12 A3003 RMK A01 T02870116  RH  035%=      5-min Rain = 0
KSW1 121805Z 32004KT 29/12 A3003 RMK A01 T02850115  RH  035%=      5-min Rain = 0
KSW1 121806Z 34002KT 28/12 A3003 RMK A01 T02830116  RH  035%=      5-min Rain = 0
KSW1 121807Z 34000KT 28/12 A3003 RMK A01 T02830115  RH  035%=      5-min Rain = 0
KSW1 121808Z 24001KT 28/12 A3003 RMK A01 T02840117  RH  035%=      5-min Rain = 0
KSW1 121809Z 25002KT 29/12 A3003 RMK A01 T02860116  RH  035%=      5-min Rain = 0
KSW1 121810Z 26002KT 29/12 A3003 RMK A01 T02860118  RH  035%=      5-min Rain = 0
KSW1 121811Z 27003KT 29/12 A3003 RMK A01 T02870118  RH  035%=      5-min Rain = 0
KSW1 121812Z 29006KT 29/12 A3003 RMK A01 T02900120  RH  035%=      5-min Rain = 0
KSW1 121813Z 27004KT 29/12 A3003 RMK A01 T02910117  RH  034%=      5-min Rain = 0
KSW1 121814Z 30004KT 29/12 A3003 RMK A01 T02880116  RH  035%=      5-min Rain = 0
KSW1 121815Z 30005KT 29/12 A3003 RMK A01 T02870120  RH  035%=      5-min Rain = 0
KSW1 121816Z 30006KT 29/12 A3003 RMK A01 T02880118  RH  035%=      5-min Rain = 0
KSW1 121817Z 31004KT 29/12 A3003 RMK A01 T02880118  RH  035%=      5-min Rain = 0
KSW1 121818Z 35002KT 29/12 A3003 RMK A01 T02880118  RH  035%=      5-min Rain = 0
KSW1 121819Z 34005KT 29/12 A3003 RMK A01 T02880119  RH  035%=      5-min Rain = 0
KSW1 121820Z 33007KT 29/12 A3003 RMK A01 T02890119  RH  035%=      5-min Rain = 0
KSW1 121821Z 31007KT 29/12 A3003 RMK A01 T02910117  RH  034%=      5-min Rain = 0
KSW1 121822Z 32006KT 29/12 A3003 RMK A01 T02910117  RH  034%=      5-min Rain = 0
KSW1 121823Z 35004KT 29/12 A3003 RMK A01 T02900116  RH  034%=      5-min Rain = 0
KSW1 121824Z 01001KT 29/12 A3002 RMK A01 T02880115  RH  034%=      5-min Rain = 0
KSW1 121825Z 30007KT 29/12 A3002 RMK A01 T02890116  RH  034%=      5-min Rain = 0
KSW1 121826Z 29009KT 29/12 A3002 RMK A01 T02900115  RH  034%=      5-min Rain = 0
KSW1 121827Z 29008KT 29/12 A3002 RMK A01 T02910115  RH  034%=      5-min Rain = 0
KSW1 121828Z 27005KT 29/11 A3002 RMK A01 T02910113  RH  033%=      5-min Rain = 0
KSW1 121829Z 30003KT 29/11 A3002 RMK A01 T02910114  RH  033%=      5-min Rain = 0
KSW1 121830Z 33006KT 29/12 A3002 RMK A01 T02900116  RH  034%=      5-min Rain = 0
KSW1 121831Z 33007KT 29/12 A3002 RMK A01 T02920115  RH  034%=      5-min Rain = 0
KSW1 121832Z 34008KT 29/12 A3002 RMK A01 T02920118  RH  034%=      5-min Rain = 0
KSW1 121833Z 34008KT 29/12 A3002 RMK A01 T02940116  RH  033%=      5-min Rain = 0
KSW1 121834Z 33006KT 30/12 A3002 RMK A01 T02950117  RH  033%=      5-min Rain = 0
KSW1 121835Z 32005KT 29/11 A3002 RMK A01 T02940114  RH  033%=      5-min Rain = 0
KSW1 121836Z 33006KT 29/12 A3002 RMK A01 T02900118  RH  034%=      5-min Rain = 0
KSW1 121837Z 32006KT 29/12 A3002 RMK A01 T02940119  RH  034%=      5-min Rain = 0
KSW1 121838Z 36003KT 30/12 A3002 RMK A01 T02960119  RH  034%=      5-min Rain = 0
KSW1 121839Z 33003KT 30/12 A3002 RMK A01 T02960118  RH  033%=      5-min Rain = 0
KSW1 121840Z 31008KT 30/12 A3002 RMK A01 T02960118  RH  033%=      5-min Rain = 0
KSW1 121841Z 31005KT 30/12 A3002 RMK A01 T02960117  RH  033%=      5-min Rain = 0
KSW1 121842Z 26001KT 29/12 A3002 RMK A01 T02940117  RH  033%=      5-min Rain = 0
KSW1 121843Z 32006KT 29/12 A3002 RMK A01 T02940119  RH  034%=      5-min Rain = 0
KSW1 121844Z 31009KT 30/12 A3002 RMK A01 T02960117  RH  033%=      5-min Rain = 0
KSW1 121845Z 32009KT 30/12 A3002 RMK A01 T02950117  RH  033%=      5-min Rain = 0
KSW1 121846Z 33007KT 29/12 A3002 RMK A01 T02930118  RH  034%=      5-min Rain = 0
KSW1 121847Z 34005KT 29/12 A3002 RMK A01 T02930121  RH  034%=      5-min Rain = 0
KSW1 121848Z 35005KT 30/12 A3002 RMK A01 T02950119  RH  034%=      5-min Rain = 0
KSW1 121849Z 35006KT 30/12 A3001 RMK A01 T02960121  RH  034%=      5-min Rain = 0
KSW1 121850Z 34010KT 30/12 A3001 RMK A01 T02990121  RH  033%=      5-min Rain = 0
KSW1 121851Z 32007KT 30/12 A3001 RMK A01 T02990120  RH  033%=      5-min Rain = 0
KSW1 121852Z 34008KT 30/12 A3002 RMK A01 T03000121  RH  033%=      5-min Rain = 0
KSW1 121853Z 32006KT 30/12 A3001 RMK A01 T02990120  RH  033%=      5-min Rain = 0
KSW1 121854Z 35004KT 30/12 A3001 RMK A01 T02970120  RH  034%=      5-min Rain = 0
KSW1 121855Z 02004KT 30/12 A3001 RMK A01 T02960121  RH  034%=      5-min Rain = 0
KSW1 121856Z 02003KT 30/12 A3001 RMK A01 T02970123  RH  034%=      5-min Rain = 0
KSW1 121857Z 01003KT 30/12 A3001 RMK A01 T02990120  RH  033%=      5-min Rain = 0
KSW1 121858Z 36004KT 30/12 A3001 RMK A01 T03000119  RH  033%=      5-min Rain = 0
KSW1 121859Z 32004KT 30/12 A3001 RMK A01 T02980118  RH  033%=      5-min Rain = 0
KSW1 121900Z 31002KT 30/12 A3001 RMK A01 T02960118  RH  033%=      5-min Rain = 0
KSW1 121901Z 31003KT 29/12 A3001 RMK A01 T02940118  RH  034%=      5-min Rain = 0
KSW1 121902Z 30004KT 29/12 A3001 RMK A01 T02930118  RH  034%=      5-min Rain = 0
KSW1 121903Z 00002G8KT 29/12 A3001 RMK A01 T02920119  RH  034%=      5-min Rain = 0
KSW1 121904Z 36006KT 29/12 A3001 RMK A01 T02940120  RH  034%=      5-min Rain = 0
KSW1 121905Z 34003KT 30/12 A3001 RMK A01 T02980122  RH  034%=      5-min Rain = 0
KSW1 121906Z 36004KT 30/12 A3001 RMK A01 T03000119  RH  033%=      5-min Rain = 0
KSW1 121907Z 02007KT 30/12 A3001 RMK A01 T03000123  RH  034%=      5-min Rain = 0
KSW1 121908Z 34003KT 30/12 A3001 RMK A01 T03010122  RH  033%=      5-min Rain = 0
KSW1 121909Z 05001KT 30/12 A30 RMK A01 T03010122  RH  033%=      5-min Rain = 0
KSW1 121910Z 05002KT 30/12 A30 RMK A01 T03010119  RH  033%=      5-min Rain = 0
KSW1 121911Z 03002KT 30/12 A30 RMK A01 T03020124  RH  034%=      5-min Rain = 0
KSW1 121912Z 29002KT 31/13 A30 RMK A01 T03050127  RH  034%=      5-min Rain = 0
KSW1 121913Z 31004KT 31/12 A30 RMK A01 T03080124  RH  032%=      5-min Rain = 0
KSW1 121914Z 28006KT 31/12 A30 RMK A01 T03080124  RH  032%=      5-min Rain = 0
KSW1 121915Z 27005KT 31/12 A30 RMK A01 T03070120  RH  032%=      5-min Rain = 0
KSW1 121916Z 28005KT 30/12 A30 RMK A01 T03030121  RH  033%=      5-min Rain = 0
KSW1 121917Z 27006KT 30/12 A30 RMK A01 T03020123  RH  033%=      5-min Rain = 0
KSW1 121918Z 27007KT 30/12 A30 RMK A01 T03040121  RH  033%=      5-min Rain = 0
KSW1 121919Z 27006KT 30/12 A30 RMK A01 T03030120  RH  032%=      5-min Rain = 0
KSW1 121920Z 27003KT 30/12 A30 RMK A01 T03030121  RH  033%=      5-min Rain = 0
KSW1 121921Z 29003KT 30/12 A30 RMK A01 T03030123  RH  033%=      5-min Rain = 0
KSW1 121922Z 27005KT 30/12 A30 RMK A01 T03030123  RH  033%=      5-min Rain = 0
KSW1 121923Z 30006KT 31/12 A30 RMK A01 T03050123  RH  033%=      5-min Rain = 0
KSW1 121924Z 29004KT 31/12 A30 RMK A01 T03070124  RH  033%=      5-min Rain = 0
KSW1 121925Z 30003KT 31/12 A30 RMK A01 T03080123  RH  032%=      5-min Rain = 0
KSW1 121926Z 31005KT 31/12 A30 RMK A01 T03050120  RH  032%=      5-min Rain = 0
KSW1 121927Z 31004KT 30/12 A2999 RMK A01 T03030123  RH  033%=      5-min Rain = 0
KSW1 121928Z 01004KT 30/12 A2999 RMK A01 T03030122  RH  033%=      5-min Rain = 0
KSW1 121929Z 01004KT 30/12 A2999 RMK A01 T03030121  RH  033%=      5-min Rain = 0
KSW1 121930Z 01004KT 30/12 A2999 RMK A01 T03040123  RH  033%=      5-min Rain = 0
KSW1 121931Z 01005KT 31/12 A2999 RMK A01 T03060124  RH  033%=      5-min Rain = 0
KSW1 121932Z 02003KT 31/12 A2999 RMK A01 T03080124  RH  032%=      5-min Rain = 0
KSW1 121933Z 30006KT 31/12 A2999 RMK A01 T03090124  RH  032%=      5-min Rain = 0
KSW1 121934Z 29005KT 31/12 A2999 RMK A01 T03100122  RH  032%=      5-min Rain = 0
KSW1 121935Z 31007KT 31/12 A2999 RMK A01 T03070121  RH  032%=      5-min Rain = 0
KSW1 121936Z 30006G11KT 31/12 A2999 RMK A01 T03050122  RH  033%=      5-min Rain = 0
KSW1 121937Z 30006KT 30/12 A2999 RMK A01 T03040122  RH  033%=      5-min Rain = 0
KSW1 121938Z 30004KT 30/12 A2999 RMK A01 T03030123  RH  033%=      5-min Rain = 0
KSW1 121939Z 30004KT 30/12 A2999 RMK A01 T03040120  RH  032%=      5-min Rain = 0
KSW1 121940Z 34008KT 30/12 A2999 RMK A01 T03030121  RH  033%=      5-min Rain = 0
KSW1 121941Z 35008KT 30/12 A2999 RMK A01 T03030122  RH  033%=      5-min Rain = 0
KSW1 121942Z 35010G15KT 30/12 A2999 RMK A01 T03040123  RH  033%=      5-min Rain = 0
KSW1 121943Z 35005KT 31/12 A2999 RMK A01 T03060122  RH  032%=      5-min Rain = 0
KSW1 121944Z 01006KT 31/12 A2998 RMK A01 T03060122  RH  032%=      5-min Rain = 0
KSW1 121945Z 03006KT 31/12 A2998 RMK A01 T03060124  RH  033%=      5-min Rain = 0
KSW1 121946Z 04003KT 31/12 A2998 RMK A01 T03070123  RH  032%=      5-min Rain = 0
KSW1 121947Z 04006KT 31/13 A2998 RMK A01 T03080125  RH  033%=      5-min Rain = 0
KSW1 121948Z 00008KT 31/12 A2998 RMK A01 T03100124  RH  032%=      5-min Rain = 0
KSW1 121949Z 02005KT 31/12 A2998 RMK A01 T03100124  RH  032%=      5-min Rain = 0
KSW1 121950Z 00010KT 31/13 A2998 RMK A01 T03100125  RH  032%=      5-min Rain = 0
KSW1 121951Z 35010KT 31/12 A2998 RMK A01 T03110123  RH  032%=      5-min Rain = 0
KSW1 121952Z 36008KT 31/12 A2998 RMK A01 T03080123  RH  032%=      5-min Rain = 0
KSW1 121953Z 36006KT 31/12 A2998 RMK A01 T03060122  RH  032%=      5-min Rain = 0
KSW1 121954Z 34003KT 31/12 A2998 RMK A01 T03060122  RH  032%=      5-min Rain = 0
KSW1 121955Z 33005KT 31/12 A2998 RMK A01 T03050123  RH  033%=      5-min Rain = 0
KSW1 121956Z 34005KT 31/12 A2997 RMK A01 T03050122  RH  033%=      5-min Rain = 0
KSW1 121957Z 32003KT 31/12 A2997 RMK A01 T03050124  RH  033%=      5-min Rain = 0
KSW1 121958Z 34003KT 31/12 A2997 RMK A01 T03050123  RH  033%=      5-min Rain = 0
KSW1 121959Z 02007KT 31/13 A2997 RMK A01 T03070126  RH  033%=      5-min Rain = 0
KSW1 122000Z 01003KT 31/12 A2997 RMK A01 T03090123  RH  032%=      5-min Rain = 0
KSW1 122001Z 34002KT 31/13 A2997 RMK A01 T03090125  RH  032%=      5-min Rain = 0
KSW1 122002Z 32001KT 31/12 A2997 RMK A01 T03090122  RH  032%=      5-min Rain = 0
KSW1 122003Z 02001KT 31/12 A2997 RMK A01 T03090121  RH  032%=      5-min Rain = 0
KSW1 122004Z 03003KT 31/13 A2997 RMK A01 T03090125  RH  032%=      5-min Rain = 0
KSW1 122005Z 02001KT 31/12 A2997 RMK A01 T03110121  RH  031%=      5-min Rain = 0
KSW1 122006Z 34005KT 31/12 A2997 RMK A01 T03100122  RH  032%=      5-min Rain = 0
KSW1 122007Z 34006KT 31/13 A2997 RMK A01 T03090125  RH  032%=      5-min Rain = 0
KSW1 122008Z 02009KT 31/13 A2997 RMK A01 T03100125  RH  032%=      5-min Rain = 0
KSW1 122009Z 01006KT 31/12 A2997 RMK A01 T03120124  RH  032%=      5-min Rain = 0
KSW1 122010Z 33009G14KT 32/13 A2997 RMK A01 T03160125  RH  031%=      5-min Rain = 0
KSW1 122011Z 33008KT 32/12 A2997 RMK A01 T03170121  RH  030%=      5-min Rain = 0
KSW1 122012Z 35011KT 32/12 A2997 RMK A01 T03150123  RH  031%=      5-min Rain = 0
KSW1 122013Z 01010KT 32/12 A2997 RMK A01 T03150121  RH  030%=      5-min Rain = 0
KSW1 122014Z 01009KT 32/12 A2997 RMK A01 T03150121  RH  030%=      5-min Rain = 0
KSW1 122015Z 02006KT 31/12 A2997 RMK A01 T03140123  RH  031%=      5-min Rain = 0
KSW1 122016Z 01006KT 31/12 A2997 RMK A01 T03140122  RH  031%=      5-min Rain = 0
KSW1 122017Z 35007KT 31/12 A2997 RMK A01 T03140122  RH  031%=      5-min Rain = 0
KSW1 122018Z 36005KT 31/12 A2997 RMK A01 T03120121  RH  031%=      5-min Rain = 0
KSW1 122019Z 01008KT 31/12 A2997 RMK A01 T03120124  RH  032%=      5-min Rain = 0
KSW1 122020Z 01006KT 31/12 A2997 RMK A01 T03130121  RH  031%=      5-min Rain = 0
KSW1 122021Z 36006KT 31/12 A2997 RMK A01 T03130123  RH  031%=      5-min Rain = 0
KSW1 122022Z 35006KT 31/12 A2996 RMK A01 T03130121  RH  031%=      5-min Rain = 0
KSW1 122023Z 35003KT 31/12 A2996 RMK A01 T03130121  RH  031%=      5-min Rain = 0
KSW1 122024Z 26002KT 31/12 A2996 RMK A01 T03130121  RH  031%=      5-min Rain = 0
KSW1 122025Z 25005KT 31/12 A2996 RMK A01 T03130121  RH  031%=      5-min Rain = 0
KSW1 122026Z 26004KT 31/12 A2996 RMK A01 T03120123  RH  031%=      5-min Rain = 0
KSW1 122027Z 30005G11KT 31/12 A2996 RMK A01 T03130123  RH  031%=      5-min Rain = 0
KSW1 122028Z 31010KT 32/12 A2996 RMK A01 T03150122  RH  031%=      5-min Rain = 0
KSW1 122029Z 35007KT 31/12 A2996 RMK A01 T03140122  RH  031%=      5-min Rain = 0
KSW1 122030Z 01007KT 31/12 A2996 RMK A01 T03140122  RH  031%=      5-min Rain = 0
KSW1 122031Z 01006KT 31/12 A2996 RMK A01 T03140121  RH  031%=      5-min Rain = 0
KSW1 122032Z 01005KT 31/12 A2996 RMK A01 T03120123  RH  031%=      5-min Rain = 0
KSW1 122033Z 33004KT 31/12 A2996 RMK A01 T03120121  RH  031%=      5-min Rain = 0
KSW1 122034Z 32004KT 31/12 A2996 RMK A01 T03120124  RH  032%=      5-min Rain = 0
KSW1 122035Z 30004KT 32/12 A2996 RMK A01 T03150121  RH  030%=      5-min Rain = 0
KSW1 122036Z 29005KT 32/12 A2995 RMK A01 T03150123  RH  031%=      5-min Rain = 0
KSW1 122037Z 29009KT 32/12 A2995 RMK A01 T03170123  RH  031%=      5-min Rain = 0
KSW1 122038Z 28008KT 32/12 A2995 RMK A01 T03170121  RH  030%=      5-min Rain = 0
KSW1 122039Z 29008KT 32/12 A2995 RMK A01 T03150121  RH  031%=      5-min Rain = 0
KSW1 122040Z 31007KT 31/12 A2995 RMK A01 T03140121  RH  031%=      5-min Rain = 0
KSW1 122041Z 36004KT 31/12 A2995 RMK A01 T03130123  RH  031%=      5-min Rain = 0
KSW1 122042Z 03006KT 32/12 A2995 RMK A01 T03150122  RH  031%=      5-min Rain = 0
KSW1 122043Z 02004KT 31/12 A2995 RMK A01 T03130120  RH  031%=      5-min Rain = 0
KSW1 122044Z 35003KT 31/12 A2995 RMK A01 T03110122  RH  031%=      5-min Rain = 0
KSW1 122045Z 02003KT 31/12 A2995 RMK A01 T03100120  RH  031%=      5-min Rain = 0
KSW1 122046Z 06003KT 31/12 A2995 RMK A01 T03100121  RH  031%=      5-min Rain = 0
KSW1 122047Z 10003KT 31/12 A2995 RMK A01 T03090120  RH  031%=      5-min Rain = 0
KSW1 122048Z 16002KT 31/12 A2995 RMK A01 T03080119  RH  031%=      5-min Rain = 0
KSW1 122049Z 15001KT 31/12 A2995 RMK A01 T03080122  RH  032%=      5-min Rain = 0
KSW1 122050Z 05001KT 31/13 A2995 RMK A01 T03110127  RH  032%=      5-min Rain = 0
KSW1 122051Z 04003KT 32/13 A2995 RMK A01 T03160127  RH  032%=      5-min Rain = 0
KSW1 122052Z 03002KT 32/13 A2995 RMK A01 T03180126  RH  031%=      5-min Rain = 0
KSW1 122053Z 05003KT 32/12 A2995 RMK A01 T03190124  RH  030%=      5-min Rain = 0
KSW1 122054Z 09001KT 32/12 A2995 RMK A01 T03180123  RH  031%=      5-min Rain = 0
KSW1 122055Z 00006KT 32/13 A2995 RMK A01 T03160126  RH  031%=      5-min Rain = 0
KSW1 122056Z 36009KT 32/12 A2995 RMK A01 T03160123  RH  031%=      5-min Rain = 0
KSW1 122057Z 36005KT 32/13 A2995 RMK A01 T03170126  RH  031%=      5-min Rain = 0
KSW1 122058Z 00004KT 32/12 A2995 RMK A01 T03180122  RH  030%=      5-min Rain = 0
KSW1 122059Z 01004KT 32/12 A2995 RMK A01 T03170124  RH  031%=      5-min Rain = 0
KSW1 122100Z 01001KT 32/12 A2995 RMK A01 T03170123  RH  031%=      5-min Rain = 0
KSW1 122101Z 10001KT 32/12 A2994 RMK A01 T03160120  RH  030%=      5-min Rain = 0
KSW1 122102Z 10003KT 32/12 A2994 RMK A01 T03160119  RH  030%=      5-min Rain = 0
KSW1 122103Z 14003KT 31/12 A2994 RMK A01 T03140118  RH  030%=      5-min Rain = 0
KSW1 122104Z 05002KT 31/12 A2994 RMK A01 T03130123  RH  031%=      5-min Rain = 0
KSW1 122105Z 02004KT 31/12 A2994 RMK A01 T03140120  RH  031%=      5-min Rain = 0
KSW1 122106Z 36006G12KT 31/12 A2994 RMK A01 T03140122  RH  031%=      5-min Rain = 0
KSW1 122107Z 36009KT 32/12 A2994 RMK A01 T03160122  RH  031%=      5-min Rain = 0
KSW1 122108Z 33007KT 32/12 A2994 RMK A01 T03160121  RH  030%=      5-min Rain = 0
KSW1 122109Z 34008KT 32/12 A2994 RMK A01 T03160122  RH  031%=      5-min Rain = 0
KSW1 122110Z 35005KT 32/12 A2994 RMK A01 T03170121  RH  030%=      5-min Rain = 0
KSW1 122111Z 01007KT 32/13 A2994 RMK A01 T03180125  RH  031%=      5-min Rain = 0
KSW1 122112Z 35007KT 32/12 A2994 RMK A01 T03180121  RH  030%=      5-min Rain = 0
KSW1 122113Z 35004KT 32/12 A2994 RMK A01 T03170122  RH  030%=      5-min Rain = 0
KSW1 122114Z 34007KT 32/12 A2994 RMK A01 T03160121  RH  030%=      5-min Rain = 0
KSW1 122115Z 35003KT 31/12 A2994 RMK A01 T03140119  RH  030%=      5-min Rain = 0
KSW1 122116Z 02003KT 31/12 A2994 RMK A01 T03120121  RH  031%=      5-min Rain = 0
KSW1 122117Z 32004KT 31/13 A2994 RMK A01 T03130125  RH  032%=      5-min Rain = 0
KSW1 122118Z 32007KT 32/12 A2994 RMK A01 T03160122  RH  030%=      5-min Rain = 0
KSW1 122119Z 31006KT 32/12 A2993 RMK A01 T03160121  RH  030%=      5-min Rain = 0
KSW1 122120Z 31007KT 31/12 A2993 RMK A01 T03140121  RH  031%=      5-min Rain = 0
KSW1 122121Z 33007KT 31/12 A2993 RMK A01 T03140122  RH  031%=      5-min Rain = 0
KSW1 122122Z 34008KT 31/12 A2993 RMK A01 T03140122  RH  031%=      5-min Rain = 0
KSW1 122123Z 00007KT 32/12 A2993 RMK A01 T03150122  RH  031%=      5-min Rain = 0
KSW1 122124Z 01008KT 32/12 A2993 RMK A01 T03160122  RH  031%=      5-min Rain = 0
KSW1 122125Z 03006KT 32/12 A2993 RMK A01 T03170122  RH  030%=      5-min Rain = 0
KSW1 122126Z 02004KT 32/12 A2993 RMK A01 T03170124  RH  031%=      5-min Rain = 0
KSW1 122127Z 35002KT 32/12 A2993 RMK A01 T03180121  RH  030%=      5-min Rain = 0
KSW1 122128Z 36004KT 32/12 A2993 RMK A01 T03180123  RH  031%=      5-min Rain = 0
KSW1 122129Z 35007KT 32/12 A2993 RMK A01 T03180124  RH  031%=      5-min Rain = 0
KSW1 122130Z 34007KT 32/12 A2993 RMK A01 T03200123  RH  030%=      5-min Rain = 0
KSW1 122131Z 31005KT 32/12 A2993 RMK A01 T03190122  RH  030%=      5-min Rain = 0
KSW1 122132Z 31005KT 32/12 A2993 RMK A01 T03180124  RH  030%=      5-min Rain = 0
KSW1 122133Z 31005KT 32/12 A2993 RMK A01 T03190124  RH  030%=      5-min Rain = 0
KSW1 122134Z 30004KT 32/12 A2993 RMK A01 T03210122  RH  030%=      5-min Rain = 0
KSW1 122135Z 35005KT 32/12 A2993 RMK A01 T03200121  RH  030%=      5-min Rain = 0
KSW1 122136Z 35005KT 32/12 A2993 RMK A01 T03180122  RH  030%=      5-min Rain = 0
KSW1 122137Z 34003KT 32/12 A2993 RMK A01 T03180122  RH  030%=      5-min Rain = 0
KSW1 122138Z 30001KT 32/12 A2993 RMK A01 T03180121  RH  030%=      5-min Rain = 0
KSW1 122139Z 01002KT 32/13 A2993 RMK A01 T03170125  RH  031%=      5-min Rain = 0
KSW1 122140Z 02006KT 32/12 A2993 RMK A01 T03190124  RH  030%=      5-min Rain = 0
KSW1 122141Z 01004KT 32/12 A2993 RMK A01 T03200122  RH  030%=      5-min Rain = 0
KSW1 122142Z 34003KT 32/12 A2993 RMK A01 T03190124  RH  031%=      5-min Rain = 0
KSW1 122143Z 33005KT 32/12 A2993 RMK A01 T03190123  RH  030%=      5-min Rain = 0
KSW1 122144Z 32006KT 32/12 A2993 RMK A01 T03190122  RH  030%=      5-min Rain = 0
KSW1 122145Z 32003KT 32/12 A2993 RMK A01 T03180122  RH  030%=      5-min Rain = 0
KSW1 122146Z 35002KT 32/12 A2993 RMK A01 T03170124  RH  031%=      5-min Rain = 0
KSW1 122147Z 36003KT 32/13 A2993 RMK A01 T03180127  RH  031%=      5-min Rain = 0
KSW1 122148Z 34005KT 32/13 A2992 RMK A01 T03210125  RH  030%=      5-min Rain = 0
KSW1 122149Z 03005KT 32/13 A2992 RMK A01 T03220128  RH  031%=      5-min Rain = 0
KSW1 122150Z 00007KT 32/13 A2992 RMK A01 T03240126  RH  030%=      5-min Rain = 0
KSW1 122151Z 33009KT 33/13 A2992 RMK A01 T03260125  RH  029%=      5-min Rain = 0
KSW1 122152Z 34005KT 33/12 A2992 RMK A01 T03260123  RH  029%=      5-min Rain = 0
KSW1 122153Z 33005KT 33/13 A2992 RMK A01 T03250125  RH  030%=      5-min Rain = 0
KSW1 122154Z 33007KT 32/12 A2992 RMK A01 T03240123  RH  029%=      5-min Rain = 0
KSW1 122155Z 35005KT 32/12 A2992 RMK A01 T03220123  RH  030%=      5-min Rain = 0
KSW1 122156Z 34004KT 32/12 A2992 RMK A01 T03200124  RH  030%=      5-min Rain = 0
KSW1 122157Z 34006KT 32/12 A2992 RMK A01 T03200124  RH  030%=      5-min Rain = 0
KSW1 122158Z 02005KT 32/12 A2992 RMK A01 T03220124  RH  030%=      5-min Rain = 0
KSW1 122159Z 03004KT 32/12 A2992 RMK A01 T03220121  RH  029%=      5-min Rain = 0
KSW1 122200Z 36004KT 32/12 A2992 RMK A01 T03200124  RH  030%=      5-min Rain = 0
KSW1 122201Z 34004KT 32/12 A2992 RMK A01 T03210123  RH  030%=      5-min Rain = 0
KSW1 122202Z 03004KT 32/12 A2992 RMK A01 T03210122  RH  030%=      5-min Rain = 0
KSW1 122203Z 02004KT 32/12 A2992 RMK A01 T03210123  RH  030%=      5-min Rain = 0
KSW1 122204Z 03005G10KT 32/12 A2992 RMK A01 T03210122  RH  030%=      5-min Rain = 0
KSW1 122205Z 03009KT 32/12 A2992 RMK A01 T03210122  RH  030%=      5-min Rain = 0
KSW1 122206Z 05007KT 32/12 A2992 RMK A01 T03200121  RH  030%=      5-min Rain = 0
KSW1 122207Z 05005KT 32/12 A2992 RMK A01 T03190123  RH  030%=      5-min Rain = 0
KSW1 122208Z 06005KT 32/12 A2992 RMK A01 T03200122  RH  030%=      5-min Rain = 0
KSW1 122209Z 07005KT 32/12 A2992 RMK A01 T03200122  RH  030%=      5-min Rain = 0
KSW1 122210Z 06008KT 32/12 A2992 RMK A01 T03210122  RH  030%=      5-min Rain = 0
KSW1 122211Z 02007KT 32/12 A2992 RMK A01 T03210124  RH  030%=      5-min Rain = 0
KSW1 122212Z 00006KT 32/12 A2992 RMK A01 T03230123  RH  030%=      5-min Rain = 0
KSW1 122213Z 02005KT 32/12 A2992 RMK A01 T03220123  RH  030%=      5-min Rain = 0
KSW1 122214Z 03004KT 32/13 A2992 RMK A01 T03210125  RH  030%=      5-min Rain = 0
KSW1 122215Z 00006KT 32/13 A2992 RMK A01 T03220125  RH  030%=      5-min Rain = 0
KSW1 122216Z 33007KT 32/12 A2992 RMK A01 T03230122  RH  029%=      5-min Rain = 0
KSW1 122217Z 34003KT 32/12 A2992 RMK A01 T03220119  RH  029%=      5-min Rain = 0
KSW1 122218Z 02001KT 32/12 A2992 RMK A01 T03200119  RH  029%=      5-min Rain = 0
KSW1 122219Z 02001KT 32/12 A2992 RMK A01 T03190119  RH  030%=      5-min Rain = 0
KSW1 122220Z 00002KT 32/12 A2992 RMK A01 T03190121  RH  030%=      5-min Rain = 0
KSW1 122221Z 02006KT 32/12 A2992 RMK A01 T03200124  RH  030%=      5-min Rain = 0
KSW1 122222Z 03007KT 32/12 A2992 RMK A01 T03210123  RH  030%=      5-min Rain = 0
KSW1 122223Z 03007KT 32/12 A2992 RMK A01 T03210121  RH  029%=      5-min Rain = 0
KSW1 122224Z 05004KT 32/12 A2992 RMK A01 T03190122  RH  030%=      5-min Rain = 0
KSW1 122225Z 03002KT 32/12 A2992 RMK A01 T03190122  RH  030%=      5-min Rain = 0
KSW1 122226Z 01002KT 32/12 A2992 RMK A01 T03190123  RH  030%=      5-min Rain = 0
KSW1 122227Z 01005KT 32/12 A2992 RMK A01 T03200122  RH  030%=      5-min Rain = 0
KSW1 122228Z 03005KT 32/12 A2992 RMK A01 T03200123  RH  030%=      5-min Rain = 0
KSW1 122229Z 03006KT 32/12 A2992 RMK A01 T03200123  RH  030%=      5-min Rain = 0
KSW1 122230Z 03004KT 32/13 A2992 RMK A01 T03210125  RH  030%=      5-min Rain = 0
KSW1 122231Z 03007KT 32/13 A2992 RMK A01 T03220126  RH  030%=      5-min Rain = 0
KSW1 122232Z 05008KT 32/13 A2992 RMK A01 T03240125  RH  030%=      5-min Rain = 0
KSW1 122233Z 06006KT 32/12 A2992 RMK A01 T03240123  RH  029%=      5-min Rain = 0
KSW1 122234Z 04004KT 32/12 A2992 RMK A01 T03220124  RH  030%=      5-min Rain = 0
KSW1 122235Z 05005KT 32/12 A2991 RMK A01 T03210124  RH  030%=      5-min Rain = 0
KSW1 122236Z 08006KT 32/13 A2991 RMK A01 T03210127  RH  031%=      5-min Rain = 0
KSW1 122237Z 06009KT 32/12 A2991 RMK A01 T03240124  RH  030%=      5-min Rain = 0
KSW1 122238Z 06008KT 32/12 A2991 RMK A01 T03240124  RH  030%=      5-min Rain = 0
KSW1 122239Z 06008KT 32/12 A2991 RMK A01 T03230124  RH  030%=      5-min Rain = 0
KSW1 122240Z 07005KT 32/12 A2991 RMK A01 T03210122  RH  030%=      5-min Rain = 0
KSW1 122241Z 08003KT 32/12 A2991 RMK A01 T03200122  RH  030%=      5-min Rain = 0
KSW1 122242Z 09003KT 32/12 A2991 RMK A01 T03200122  RH  030%=      5-min Rain = 0
KSW1 122243Z 12005KT 32/12 A2991 RMK A01 T03200122  RH  030%=      5-min Rain = 0
KSW1 122244Z 09003KT 32/12 A2991 RMK A01 T03200123  RH  030%=      5-min Rain = 0
KSW1 122245Z 03006KT 32/12 A2991 RMK A01 T03200124  RH  030%=      5-min Rain = 0
KSW1 122246Z 06005KT 32/12 A2991 RMK A01 T03210124  RH  030%=      5-min Rain = 0
KSW1 122247Z 06008KT 32/13 A2991 RMK A01 T03220126  RH  030%=      5-min Rain = 0
KSW1 122248Z 05008KT 32/12 A2991 RMK A01 T03230124  RH  030%=      5-min Rain = 0
KSW1 122249Z 07008KT 32/12 A2991 RMK A01 T03220122  RH  030%=      5-min Rain = 0
KSW1 122250Z 06007KT 32/12 A2991 RMK A01 T03200122  RH  030%=      5-min Rain = 0
KSW1 122251Z 06004KT 32/12 A2991 RMK A01 T03190120  RH  030%=      5-min Rain = 0
KSW1 122252Z 05006KT 32/12 A2991 RMK A01 T03180122  RH  030%=      5-min Rain = 0
KSW1 122253Z 04006KT 32/12 A2991 RMK A01 T03190124  RH  031%=      5-min Rain = 0
KSW1 122254Z 04006KT 32/12 A2991 RMK A01 T03200123  RH  030%=      5-min Rain = 0
KSW1 122255Z 05005KT 32/12 A2991 RMK A01 T03190122  RH  030%=      5-min Rain = 0
KSW1 122256Z 03004KT 32/13 A2991 RMK A01 T03190125  RH  031%=      5-min Rain = 0
KSW1 122257Z 05003KT 32/13 A2991 RMK A01 T03200125  RH  030%=      5-min Rain = 0
KSW1 122258Z 10003KT 32/12 A2991 RMK A01 T03210121  RH  030%=      5-min Rain = 0
KSW1 122259Z 09004KT 32/12 A2991 RMK A01 T03210123  RH  030%=      5-min Rain = 0
KSW1 122300Z 10004KT 32/12 A2991 RMK A01 T03210122  RH  030%=      5-min Rain = 0
KSW1 122301Z 09003KT 32/12 A2991 RMK A01 T03210122  RH  030%=      5-min Rain = 0
KSW1 122302Z 07005KT 32/12 A2991 RMK A01 T03210123  RH  030%=      5-min Rain = 0
KSW1 122303Z 07004KT 32/12 A2991 RMK A01 T03200121  RH  030%=      5-min Rain = 0
KSW1 122304Z 04005KT 32/12 A2991 RMK A01 T03190123  RH  030%=      5-min Rain = 0
KSW1 122305Z 05007KT 32/12 A2991 RMK A01 T03190124  RH  030%=      5-min Rain = 0
KSW1 122306Z 06009KT 32/13 A2991 RMK A01 T03190125  RH  031%=      5-min Rain = 0
KSW1 122307Z 06009KT 32/12 A2991 RMK A01 T03180124  RH  030%=      5-min Rain = 0
KSW1 122308Z 06007KT 32/12 A2991 RMK A01 T03180124  RH  031%=      5-min Rain = 0
KSW1 122309Z 05007KT 32/13 A2991 RMK A01 T03180126  RH  031%=      5-min Rain = 0
KSW1 122310Z 04004KT 32/12 A2991 RMK A01 T03180122  RH  030%=      5-min Rain = 0
KSW1 122311Z 05005KT 32/12 A2991 RMK A01 T03170123  RH  031%=      5-min Rain = 0
KSW1 122312Z 06006KT 32/12 A2991 RMK A01 T03160124  RH  031%=      5-min Rain = 0
KSW1 122313Z 04007KT 32/13 A2991 RMK A01 T03170125  RH  031%=      5-min Rain = 0
KSW1 122314Z 04007KT 32/12 A2991 RMK A01 T03170123  RH  031%=      5-min Rain = 0
KSW1 122315Z 05005KT 32/12 A2991 RMK A01 T03170123  RH  031%=      5-min Rain = 0
KSW1 122316Z 05004KT 32/13 A2991 RMK A01 T03170125  RH  031%=      5-min Rain = 0
KSW1 122317Z 06004KT 32/12 A2991 RMK A01 T03170124  RH  031%=      5-min Rain = 0
KSW1 122318Z 07006KT 32/13 A2991 RMK A01 T03180127  RH  031%=      5-min Rain = 0
KSW1 122319Z 07007KT 32/12 A2991 RMK A01 T03190123  RH  030%=      5-min Rain = 0
KSW1 122320Z 09004KT 32/12 A2991 RMK A01 T03180122  RH  030%=      5-min Rain = 0
KSW1 122321Z 09004KT 32/12 A2991 RMK A01 T03170121  RH  030%=      5-min Rain = 0
KSW1 122322Z 08005KT 32/12 A2991 RMK A01 T03160122  RH  030%=      5-min Rain = 0
KSW1 122323Z 10006KT 32/12 A2991 RMK A01 T03160124  RH  031%=      5-min Rain = 0
KSW1 122324Z 09005KT 32/12 A2991 RMK A01 T03160122  RH  030%=      5-min Rain = 0
KSW1 122325Z 08005KT 32/12 A2991 RMK A01 T03160122  RH  030%=      5-min Rain = 0
KSW1 122326Z 08006KT 32/12 A2991 RMK A01 T03160124  RH  031%=      5-min Rain = 0
KSW1 122327Z 07005KT 32/12 A299 RMK A01 T03160122  RH  031%=      5-min Rain = 0
KSW1 122328Z 08006KT 32/12 A299 RMK A01 T03150122  RH  031%=      5-min Rain = 0
KSW1 122329Z 08005KT 32/12 A299 RMK A01 T03150123  RH  031%=      5-min Rain = 0
KSW1 122330Z 08006KT 32/12 A299 RMK A01 T03150122  RH  031%=      5-min Rain = 0
KSW1 122331Z 09007KT 32/12 A299 RMK A01 T03150124  RH  031%=      5-min Rain = 0
KSW1 122332Z 09007KT 31/12 A299 RMK A01 T03140123  RH  031%=      5-min Rain = 0
KSW1 122333Z 09007KT 32/12 A299 RMK A01 T03150123  RH  031%=      5-min Rain = 0
KSW1 122334Z 10007KT 31/12 A299 RMK A01 T03140124  RH  031%=      5-min Rain = 0
KSW1 122335Z 09006KT 31/12 A299 RMK A01 T03140123  RH  031%=      5-min Rain = 0
KSW1 122336Z 10006KT 31/12 A299 RMK A01 T03140124  RH  031%=      5-min Rain = 0
KSW1 122337Z 10007KT 31/12 A299 RMK A01 T03140123  RH  031%=      5-min Rain = 0
KSW1 122338Z 10006KT 31/12 A299 RMK A01 T03140124  RH  031%=      5-min Rain = 0
KSW1 122339Z 10008KT 31/12 A299 RMK A01 T03140122  RH  031%=      5-min Rain = 0
KSW1 122340Z 10006KT 31/12 A299 RMK A01 T03130122  RH  031%=      5-min Rain = 0
KSW1 122341Z 10007KT 31/12 A299 RMK A01 T03120121  RH  031%=      5-min Rain = 0
KSW1 122342Z 10006KT 31/12 A299 RMK A01 T03120121  RH  031%=      5-min Rain = 0
KSW1 122343Z 10006KT 31/12 A299 RMK A01 T03120123  RH  031%=      5-min Rain = 0
KSW1 122344Z 10007KT 31/12 A299 RMK A01 T03120122  RH  031%=      5-min Rain = 0
KSW1 122345Z 10006KT 31/12 A299 RMK A01 T03120122  RH  031%=      5-min Rain = 0
KSW1 122346Z 10006KT 31/12 A299 RMK A01 T03110122  RH  031%=      5-min Rain = 0
KSW1 122347Z 10007KT 31/12 A299 RMK A01 T03120123  RH  032%=      5-min Rain = 0
KSW1 122348Z 10006KT 31/12 A299 RMK A01 T03120123  RH  032%=      5-min Rain = 0
KSW1 122349Z 09007KT 31/12 A299 RMK A01 T03110122  RH  031%=      5-min Rain = 0
KSW1 122350Z 09006KT 31/12 A299 RMK A01 T03100123  RH  032%=      5-min Rain = 0
KSW1 122351Z 09006KT 31/12 A299 RMK A01 T03100122  RH  032%=      5-min Rain = 0
KSW1 122352Z 09006KT 31/12 A299 RMK A01 T03100122  RH  032%=      5-min Rain = 0
KSW1 122353Z 09005KT 31/12 A299 RMK A01 T03090120  RH  031%=      5-min Rain = 0
KSW1 122354Z 10006KT 31/12 A299 RMK A01 T03100122  RH  032%=      5-min Rain = 0
KSW1 122355Z 10005KT 31/12 A299 RMK A01 T03100122  RH  032%=      5-min Rain = 0
KSW1 122356Z 09006KT 31/13 A299 RMK A01 T03100125  RH  032%=      5-min Rain = 0
KSW1 122357Z 09006KT 31/12 A299 RMK A01 T03090123  RH  032%=      5-min Rain = 0
KSW1 122358Z 07006KT 31/12 A299 RMK A01 T03090124  RH  032%=      5-min Rain = 0
KSW1 122359Z 06006KT 31/12 A299 RMK A01 T03080124  RH  032%=      5-min Rain = 0
KSW1 130000Z 07007KT 31/12 A299 RMK A01 T03080124  RH  032%=      5-min Rain = 0
KSW1 130001Z 07006KT 31/12 A299 RMK A01 T03070123  RH  032%=      5-min Rain = 0
KSW1 130002Z 08006KT 31/12 A299 RMK A01 T03060124  RH  033%=      5-min Rain = 0
KSW1 130003Z 08006KT 31/12 A299 RMK A01 T03060123  RH  033%=      5-min Rain = 0
KSW1 130004Z 08007KT 31/12 A299 RMK A01 T03060122  RH  032%=      5-min Rain = 0
KSW1 130005Z 08007KT 31/12 A299 RMK A01 T03060122  RH  032%=      5-min Rain = 0
KSW1 130006Z 09006KT 31/12 A299 RMK A01 T03050121  RH  032%=      5-min Rain = 0
KSW1 130007Z 09007KT 31/12 A299 RMK A01 T03050122  RH  032%=      5-min Rain = 0
KSW1 130008Z 08007KT 31/12 A299 RMK A01 T03050122  RH  033%=      5-min Rain = 0
KSW1 130009Z 08008KT 30/12 A299 RMK A01 T03040121  RH  032%=      5-min Rain = 0
KSW1 130010Z 08007KT 30/12 A299 RMK A01 T03030121  RH  033%=      5-min Rain = 0
KSW1 130011Z 08007KT 30/12 A299 RMK A01 T03030121  RH  033%=      5-min Rain = 0
KSW1 130012Z 08007KT 30/12 A299 RMK A01 T03020121  RH  033%=      5-min Rain = 0
KSW1 130013Z 08007KT 30/12 A299 RMK A01 T03020121  RH  033%=      5-min Rain = 0
KSW1 130014Z 08006KT 30/12 A299 RMK A01 T03010121  RH  033%=      5-min Rain = 0
KSW1 130015Z 08006KT 30/12 A299 RMK A01 T03000122  RH  033%=      5-min Rain = 0
KSW1 130016Z 08006KT 30/12 A299 RMK A01 T02990122  RH  034%=      5-min Rain = 0
KSW1 130017Z 08006KT 30/12 A299 RMK A01 T02990122  RH  034%=      5-min Rain = 0
KSW1 130018Z 08006KT 30/12 A299 RMK A01 T02980121  RH  034%=      5-min Rain = 0
KSW1 130019Z 08005KT 30/12 A299 RMK A01 T02970122  RH  034%=      5-min Rain = 0
KSW1 130020Z 08006KT 30/12 A299 RMK A01 T02970123  RH  034%=      5-min Rain = 0
KSW1 130021Z 08006KT 30/12 A2989 RMK A01 T02960123  RH  034%=      5-min Rain = 0
KSW1 130022Z 09005KT 30/12 A2989 RMK A01 T02950123  RH  035%=      5-min Rain = 0
KSW1 130023Z 08005KT 29/12 A2989 RMK A01 T02940124  RH  035%=      5-min Rain = 0
KSW1 130024Z 08005KT 29/12 A2989 RMK A01 T02930124  RH  035%=      5-min Rain = 0
KSW1 130025Z 09005KT 29/12 A2989 RMK A01 T02920123  RH  035%=      5-min Rain = 0
KSW1 130026Z 09006KT 29/12 A2989 RMK A01 T02910123  RH  035%=      5-min Rain = 0
KSW1 130027Z 08005KT 29/12 A2989 RMK A01 T02910123  RH  036%=      5-min Rain = 0
KSW1 130028Z 09005KT 29/12 A2989 RMK A01 T02900123  RH  036%=      5-min Rain = 0
KSW1 130029Z 08005KT 29/12 A2989 RMK A01 T02890124  RH  036%=      5-min Rain = 0
KSW1 130030Z 08006KT 29/12 A2989 RMK A01 T02870123  RH  036%=      5-min Rain = 0
KSW1 130031Z 08007KT 29/12 A2989 RMK A01 T02870124  RH  036%=      5-min Rain = 0
KSW1 130032Z 08006KT 29/12 A2989 RMK A01 T02860123  RH  036%=      5-min Rain = 0
KSW1 130033Z 08006KT 29/12 A2989 RMK A01 T02860122  RH  036%=      5-min Rain = 0
KSW1 130034Z 08006KT 29/12 A2989 RMK A01 T02850122  RH  037%=      5-min Rain = 0
KSW1 130035Z 08007KT 28/12 A2989 RMK A01 T02840123  RH  037%=      5-min Rain = 0
KSW1 130036Z 08007KT 28/12 A2989 RMK A01 T02830122  RH  037%=      5-min Rain = 0
KSW1 130037Z 08007KT 28/12 A2989 RMK A01 T02830123  RH  037%=      5-min Rain = 0
KSW1 130038Z 08007KT 28/12 A2989 RMK A01 T02820122  RH  037%=      5-min Rain = 0
KSW1 130039Z 08007KT 28/12 A2989 RMK A01 T02810122  RH  037%=      5-min Rain = 0
KSW1 130040Z 08007KT 28/12 A2989 RMK A01 T02800122  RH  037%=      5-min Rain = 0
KSW1 130041Z 08007KT 28/12 A2989 RMK A01 T02790122  RH  038%=      5-min Rain = 0
KSW1 130042Z 08007KT 28/12 A2989 RMK A01 T02780122  RH  038%=      5-min Rain = 0
KSW1 130043Z 08007KT 28/12 A2989 RMK A01 T02780121  RH  038%=      5-min Rain = 0
KSW1 130044Z 08007KT 28/12 A2989 RMK A01 T02770121  RH  038%=      5-min Rain = 0
KSW1 130045Z 08007KT 28/12 A2989 RMK A01 T02760121  RH  038%=      5-min Rain = 0
KSW1 130046Z 08007KT 28/12 A2989 RMK A01 T02750121  RH  038%=      5-min Rain = 0
KSW1 130047Z 08007KT 27/12 A2989 RMK A01 T02740121  RH  039%=      5-min Rain = 0
KSW1 130048Z 08007KT 27/12 A2989 RMK A01 T02730121  RH  039%=      5-min Rain = 0
KSW1 130049Z 08007KT 27/12 A2989 RMK A01 T02720121  RH  039%=      5-min Rain = 0
KSW1 130050Z 08007KT 27/12 A2989 RMK A01 T02710121  RH  039%=      5-min Rain = 0
KSW1 130051Z 08007KT 27/12 A2989 RMK A01 T02710121  RH  039%=      5-min Rain = 0
KSW1 130052Z 08007KT 27/12 A2989 RMK A01 T02700121  RH  040%=      5-min Rain = 0
KSW1 130053Z 07008KT 27/12 A2989 RMK A01 T02690120  RH  040%=      5-min Rain = 0
KSW1 130054Z 08008KT 27/12 A2989 RMK A01 T02680120  RH  040%=      5-min Rain = 0
KSW1 130055Z 08008KT 27/12 A2989 RMK A01 T02680120  RH  040%=      5-min Rain = 0
KSW1 130056Z 08008KT 27/12 A2989 RMK A01 T02680120  RH  040%=      5-min Rain = 0
KSW1 130057Z 08008KT 27/12 A2989 RMK A01 T02680120  RH  040%=      5-min Rain = 0
KSW1 130058Z 08008KT 27/12 A2989 RMK A01 T02680120  RH  040%=      5-min Rain = 0
KSW1 130059Z 08008KT 27/12 A2989 RMK A01 T02680120  RH  040%=      5-min Rain = 0
KSW1 130100Z 08008KT 27/12 A2989 RMK A01 T02670120  RH  040%=      5-min Rain = 0
KSW1 130101Z 08008KT 27/12 A2989 RMK A01 T02670120  RH  040%=      5-min Rain = 0
KSW1 130102Z 08008KT 27/12 A2989 RMK A01 T02660119  RH  040%=      5-min Rain = 0
KSW1 130103Z 08007KT 27/12 A2989 RMK A01 T02650119  RH  040%=      5-min Rain = 0
KSW1 130104Z 08008KT 27/12 A2989 RMK A01 T02650119  RH  040%=      5-min Rain = 0
KSW1 130105Z 08007KT 26/12 A2989 RMK A01 T02640119  RH  041%=      5-min Rain = 0
KSW1 130106Z 09007KT 26/12 A2989 RMK A01 T02630119  RH  041%=      5-min Rain = 0
KSW1 130107Z 09007KT 26/12 A2989 RMK A01 T02610120  RH  041%=      5-min Rain = 0
KSW1 130108Z 09007KT 26/12 A2989 RMK A01 T02590120  RH  042%=      5-min Rain = 0
KSW1 130109Z 09007KT 26/12 A2989 RMK A01 T02580120  RH  042%=      5-min Rain = 0
KSW1 130110Z 09008KT 26/12 A2989 RMK A01 T02560120  RH  043%=      5-min Rain = 0
KSW1 130111Z 09008KT 25/12 A2989 RMK A01 T02540120  RH  043%=      5-min Rain = 0
KSW1 130112Z 09008KT 25/12 A2989 RMK A01 T02540120  RH  043%=      5-min Rain = 0
KSW1 130113Z 09008KT 25/12 A2989 RMK A01 T02530120  RH  043%=      5-min Rain = 0
KSW1 130114Z 09008KT 25/12 A2989 RMK A01 T02530120  RH  043%=      5-min Rain = 0
KSW1 130115Z 09008KT 25/12 A2989 RMK A01 T02520120  RH  044%=      5-min Rain = 0
KSW1 130116Z 09008KT 25/12 A2989 RMK A01 T02530120  RH  044%=      5-min Rain = 0
KSW1 130117Z 09008KT 25/12 A2989 RMK A01 T02520120  RH  044%=      5-min Rain = 0
KSW1 130118Z 09008KT 25/12 A2989 RMK A01 T02520120  RH  044%=      5-min Rain = 0
KSW1 130119Z 09008KT 25/12 A2989 RMK A01 T02520119  RH  044%=      5-min Rain = 0
KSW1 130120Z 09008KT 25/12 A2989 RMK A01 T02520119  RH  044%=      5-min Rain = 0
KSW1 130121Z 09008KT 25/12 A2989 RMK A01 T02510119  RH  043%=      5-min Rain = 0
KSW1 130122Z 09008KT 25/12 A2989 RMK A01 T02520119  RH  043%=      5-min Rain = 0
KSW1 130123Z 09009KT 25/12 A2989 RMK A01 T02520119  RH  043%=      5-min Rain = 0
KSW1 130124Z 09008KT 25/12 A2989 RMK A01 T02530118  RH  043%=      5-min Rain = 0
KSW1 130125Z 09008KT 25/12 A2989 RMK A01 T02530118  RH  043%=      5-min Rain = 0
KSW1 130126Z 09009KT 25/12 A2989 RMK A01 T02540118  RH  043%=      5-min Rain = 0
KSW1 130127Z 09008KT 25/12 A2989 RMK A01 T02540117  RH  042%=      5-min Rain = 0
KSW1 130128Z 09008KT 25/12 A2989 RMK A01 T02540117  RH  042%=      5-min Rain = 0
KSW1 130129Z 09008KT 26/12 A2989 RMK A01 T02550117  RH  042%=      5-min Rain = 0
KSW1 130130Z 09008KT 25/12 A2989 RMK A01 T02540116  RH  042%=      5-min Rain = 0
KSW1 130131Z 09008KT 26/12 A2989 RMK A01 T02550116  RH  042%=      5-min Rain = 0
KSW1 130132Z 09008KT 26/12 A2989 RMK A01 T02550116  RH  042%=      5-min Rain = 0
KSW1 130133Z 09008KT 26/12 A2989 RMK A01 T02550116  RH  042%=      5-min Rain = 0
KSW1 130134Z 09008KT 26/12 A2989 RMK A01 T02550116  RH  042%=      5-min Rain = 0
KSW1 130135Z 09008KT 25/12 A2989 RMK A01 T02540117  RH  042%=      5-min Rain = 0
KSW1 130136Z 09008KT 25/12 A2989 RMK A01 T02540116  RH  042%=      5-min Rain = 0
KSW1 130137Z 09008KT 25/12 A2989 RMK A01 T02530116  RH  042%=      5-min Rain = 0
KSW1 130138Z 09008KT 25/12 A2989 RMK A01 T02520116  RH  042%=      5-min Rain = 0
KSW1 130139Z 09008KT 25/12 A2989 RMK A01 T02520116  RH  043%=      5-min Rain = 0
KSW1 130140Z 10007KT 25/12 A2989 RMK A01 T02520116  RH  042%=      5-min Rain = 0
KSW1 130141Z 10007KT 25/12 A299 RMK A01 T02520116  RH  043%=      5-min Rain = 0
KSW1 130142Z 11006KT 25/12 A299 RMK A01 T02510116  RH  043%=      5-min Rain = 0
KSW1 130143Z 11006KT 25/12 A299 RMK A01 T02490116  RH  043%=      5-min Rain = 0
KSW1 130144Z 11006KT 25/12 A299 RMK A01 T02470116  RH  044%=      5-min Rain = 0
KSW1 130145Z 11007KT 25/12 A299 RMK A01 T02450116  RH  044%=      5-min Rain = 0
KSW1 130146Z 10007KT 24/12 A299 RMK A01 T02440116  RH  045%=      5-min Rain = 0
KSW1 130147Z 10007KT 24/12 A299 RMK A01 T02430116  RH  045%=      5-min Rain = 0
KSW1 130148Z 10008KT 24/12 A299 RMK A01 T02430116  RH  045%=      5-min Rain = 0
KSW1 130149Z 10008KT 24/12 A299 RMK A01 T02430115  RH  045%=      5-min Rain = 0
KSW1 130150Z 10008KT 24/12 A299 RMK A01 T02430115  RH  045%=      5-min Rain = 0
KSW1 130151Z 10008KT 24/12 A299 RMK A01 T02440115  RH  044%=      5-min Rain = 0
KSW1 130152Z 10008KT 24/12 A299 RMK A01 T02440115  RH  044%=      5-min Rain = 0
KSW1 130153Z 10008KT 25/11 A299 RMK A01 T02450114  RH  044%=      5-min Rain = 0
KSW1 130154Z 10008KT 25/12 A299 RMK A01 T02450115  RH  044%=      5-min Rain = 0
KSW1 130155Z 10008KT 24/11 A299 RMK A01 T02440114  RH  044%=      5-min Rain = 0
KSW1 130156Z 10007KT 24/11 A299 RMK A01 T02440114  RH  044%=      5-min Rain = 0
KSW1 130157Z 10007KT 24/11 A299 RMK A01 T02440114  RH  044%=      5-min Rain = 0
KSW1 130158Z 10007KT 24/11 A299 RMK A01 T02430114  RH  044%=      5-min Rain = 0
KSW1 130159Z 10007KT 24/11 A299 RMK A01 T02430113  RH  044%=      5-min Rain = 0
KSW1 130200Z 10008KT 24/11 A299 RMK A01 T02430113  RH  044%=      5-min Rain = 0
KSW1 130201Z 10007KT 24/11 A299 RMK A01 T02430113  RH  044%=      5-min Rain = 0
KSW1 130202Z 10008KT 24/11 A299 RMK A01 T02430113  RH  044%=      5-min Rain = 0
KSW1 130203Z 09008KT 24/11 A299 RMK A01 T02420112  RH  044%=      5-min Rain = 0
KSW1 130204Z 09008KT 24/11 A299 RMK A01 T02420112  RH  044%=      5-min Rain = 0
KSW1 130205Z 09008KT 24/11 A299 RMK A01 T02420112  RH  044%=      5-min Rain = 0
KSW1 130206Z 09008KT 24/11 A299 RMK A01 T02420111  RH  044%=      5-min Rain = 0
KSW1 130207Z 09008KT 24/11 A2991 RMK A01 T02420111  RH  044%=      5-min Rain = 0
KSW1 130208Z 09008KT 24/11 A2991 RMK A01 T02430111  RH  044%=      5-min Rain = 0
KSW1 130209Z 09008KT 24/11 A2991 RMK A01 T02430111  RH  044%=      5-min Rain = 0
KSW1 130210Z 09008KT 24/11 A2991 RMK A01 T02430111  RH  044%=      5-min Rain = 0
KSW1 130211Z 09008KT 24/11 A2991 RMK A01 T02420111  RH  043%=      5-min Rain = 0
KSW1 130212Z 09008KT 24/11 A2991 RMK A01 T02420110  RH  043%=      5-min Rain = 0
KSW1 130213Z 10009KT 24/11 A2991 RMK A01 T02420110  RH  043%=      5-min Rain = 0
KSW1 130214Z 10008KT 24/11 A2991 RMK A01 T02420110  RH  043%=      5-min Rain = 0
KSW1 130215Z 10008KT 24/11 A2991 RMK A01 T02430110  RH  043%=      5-min Rain = 0
KSW1 130216Z 10008KT 24/11 A2991 RMK A01 T02420110  RH  043%=      5-min Rain = 0
KSW1 130217Z 10008KT 24/11 A2991 RMK A01 T02420110  RH  043%=      5-min Rain = 0
KSW1 130218Z 09008KT 24/11 A2991 RMK A01 T02420110  RH  043%=      5-min Rain = 0
KSW1 130219Z 10008KT 24/11 A2991 RMK A01 T02410109  RH  043%=      5-min Rain = 0
KSW1 130220Z 10008KT 24/11 A2991 RMK A01 T02410109  RH  044%=      5-min Rain = 0
KSW1 130221Z 09008KT 24/11 A2991 RMK A01 T02400109  RH  044%=      5-min Rain = 0
KSW1 130222Z 09009KT 24/11 A2991 RMK A01 T02400109  RH  044%=      5-min Rain = 0
KSW1 130223Z 09008KT 24/11 A2991 RMK A01 T02400109  RH  044%=      5-min Rain = 0
KSW1 130224Z 09008KT 24/11 A2991 RMK A01 T02400109  RH  044%=      5-min Rain = 0
KSW1 130225Z 09008KT 24/11 A2991 RMK A01 T02400108  RH  044%=      5-min Rain = 0
KSW1 130226Z 09008KT 24/11 A2991 RMK A01 T02390108  RH  043%=      5-min Rain = 0
KSW1 130227Z 09009KT 24/11 A2991 RMK A01 T02400107  RH  043%=      5-min Rain = 0
KSW1 130228Z 09009KT 24/11 A2991 RMK A01 T02400107  RH  043%=      5-min Rain = 0
KSW1 130229Z 09008KT 24/11 A2991 RMK A01 T02410107  RH  043%=      5-min Rain = 0
KSW1 130230Z 09008KT 24/11 A2991 RMK A01 T02410107  RH  043%=      5-min Rain = 0
KSW1 130231Z 09008KT 24/11 A2991 RMK A01 T02420107  RH  043%=      5-min Rain = 0
KSW1 130232Z 09008KT 24/11 A2991 RMK A01 T02420107  RH  043%=      5-min Rain = 0
KSW1 130233Z 09009KT 24/11 A2991 RMK A01 T02420107  RH  043%=      5-min Rain = 0
KSW1 130234Z 09009KT 24/11 A2991 RMK A01 T02420106  RH  043%=      5-min Rain = 0
KSW1 130235Z 09009KT 24/11 A2991 RMK A01 T02410106  RH  043%=      5-min Rain = 0
KSW1 130236Z 09008KT 24/11 A2991 RMK A01 T02420106  RH  042%=      5-min Rain = 0
KSW1 130237Z 09008KT 24/11 A2991 RMK A01 T02410106  RH  042%=      5-min Rain = 0
KSW1 130238Z 09008KT 24/11 A2991 RMK A01 T02410105  RH  042%=      5-min Rain = 0
KSW1 130239Z 09008KT 24/11 A2991 RMK A01 T02410106  RH  042%=      5-min Rain = 0
KSW1 130240Z 09008KT 24/11 A2991 RMK A01 T02410106  RH  042%=      5-min Rain = 0
KSW1 130241Z 09008KT 24/11 A2991 RMK A01 T02410105  RH  042%=      5-min Rain = 0
KSW1 130242Z 10008KT 24/11 A2991 RMK A01 T02410105  RH  042%=      5-min Rain = 0
KSW1 130243Z 10007KT 24/11 A2991 RMK A01 T02400105  RH  042%=      5-min Rain = 0
KSW1 130244Z 10008KT 24/11 A2991 RMK A01 T02400105  RH  042%=      5-min Rain = 0
KSW1 130245Z 10007KT 24/11 A2991 RMK A01 T02390105  RH  043%=      5-min Rain = 0
KSW1 130246Z 11007KT 24/11 A2991 RMK A01 T02380105  RH  043%=      5-min Rain = 0
KSW1 130247Z 11007KT 24/11 A2992 RMK A01 T02370105  RH  043%=      5-min Rain = 0
KSW1 130248Z 11007KT 24/11 A2992 RMK A01 T02350105  RH  044%=      5-min Rain = 0
KSW1 130249Z 12006KT 24/11 A2992 RMK A01 T02350105  RH  044%=      5-min Rain = 0
KSW1 130250Z 12005KT 23/11 A2992 RMK A01 T02330106  RH  045%=      5-min Rain = 0
KSW1 130251Z 12006KT 23/11 A2992 RMK A01 T02310105  RH  045%=      5-min Rain = 0
KSW1 130252Z 11005KT 23/11 A2992 RMK A01 T02290105  RH  045%=      5-min Rain = 0
KSW1 130253Z 11005KT 23/11 A2992 RMK A01 T02290105  RH  046%=      5-min Rain = 0
KSW1 130254Z 11006KT 23/11 A2992 RMK A01 T02280105  RH  046%=      5-min Rain = 0
KSW1 130255Z 11006KT 23/11 A2992 RMK A01 T02280105  RH  046%=      5-min Rain = 0
KSW1 130256Z 10006KT 23/11 A2992 RMK A01 T02270105  RH  046%=      5-min Rain = 0
KSW1 130257Z 10006KT 23/11 A2992 RMK A01 T02260105  RH  046%=      5-min Rain = 0
KSW1 130258Z 10006KT 23/11 A2992 RMK A01 T02250105  RH  046%=      5-min Rain = 0
KSW1 130259Z 10006KT 23/11 A2992 RMK A01 T02250105  RH  047%=      5-min Rain = 0
KSW1 130300Z 10007KT 23/11 A2992 RMK A01 T02250105  RH  047%=      5-min Rain = 0
KSW1 130301Z 10007KT 23/10 A2992 RMK A01 T02250104  RH  046%=      5-min Rain = 0
KSW1 130302Z 10007KT 23/10 A2992 RMK A01 T02260104  RH  046%=      5-min Rain = 0
KSW1 130303Z 10008KT 23/10 A2992 RMK A01 T02260104  RH  046%=      5-min Rain = 0
KSW1 130304Z 10008KT 23/10 A2992 RMK A01 T02270104  RH  046%=      5-min Rain = 0
KSW1 130305Z 10008KT 23/10 A2992 RMK A01 T02280104  RH  046%=      5-min Rain = 0
KSW1 130306Z 10008KT 23/10 A2992 RMK A01 T02280104  RH  046%=      5-min Rain = 0
KSW1 130307Z 10008KT 23/10 A2992 RMK A01 T02280104  RH  045%=      5-min Rain = 0
KSW1 130308Z 10008KT 23/10 A2992 RMK A01 T02280104  RH  045%=      5-min Rain = 0
KSW1 130309Z 10007KT 23/10 A2992 RMK A01 T02280104  RH  045%=      5-min Rain = 0
KSW1 130310Z 10007KT 23/10 A2992 RMK A01 T02280104  RH  045%=      5-min Rain = 0
KSW1 130311Z 10008KT 23/10 A2992 RMK A01 T02280104  RH  045%=      5-min Rain = 0
KSW1 130312Z 10008KT 23/10 A2992 RMK A01 T02280103  RH  045%=      5-min Rain = 0
KSW1 130313Z 10008KT 23/10 A2992 RMK A01 T02280104  RH  045%=      5-min Rain = 0
KSW1 130314Z 10008KT 23/10 A2992 RMK A01 T02280103  RH  045%=      5-min Rain = 0
KSW1 130315Z 10009KT 23/10 A2992 RMK A01 T02280103  RH  045%=      5-min Rain = 0
KSW1 130316Z 10008KT 23/10 A2992 RMK A01 T02280103  RH  045%=      5-min Rain = 0
KSW1 130317Z 10008KT 23/10 A2992 RMK A01 T02290103  RH  045%=      5-min Rain = 0
KSW1 130318Z 10007KT 23/10 A2992 RMK A01 T02290103  RH  045%=      5-min Rain = 0
KSW1 130319Z 11006KT 23/10 A2992 RMK A01 T02290103  RH  045%=      5-min Rain = 0
KSW1 130320Z 11006KT 23/10 A2992 RMK A01 T02280104  RH  045%=      5-min Rain = 0
KSW1 130321Z 12006KT 23/10 A2992 RMK A01 T02260103  RH  046%=      5-min Rain = 0
KSW1 130322Z 12006KT 23/10 A2992 RMK A01 T02250103  RH  046%=      5-min Rain = 0
KSW1 130323Z 13004KT 22/10 A2992 RMK A01 T02230104  RH  047%=      5-min Rain = 0
KSW1 130324Z 14004KT 22/10 A2992 RMK A01 T02220104  RH  047%=      5-min Rain = 0
KSW1 130325Z 12004KT 22/10 A2992 RMK A01 T02210104  RH  047%=      5-min Rain = 0
KSW1 130326Z 12005KT 22/10 A2992 RMK A01 T02200104  RH  047%=      5-min Rain = 0
KSW1 130327Z 11005KT 22/10 A2992 RMK A01 T02190104  RH  048%=      5-min Rain = 0
KSW1 130328Z 10005KT 22/10 A2992 RMK A01 T02180104  RH  048%=      5-min Rain = 0
KSW1 130329Z 10006KT 22/10 A2992 RMK A01 T02160104  RH  049%=      5-min Rain = 0
KSW1 130330Z 10006KT 22/10 A2992 RMK A01 T02160104  RH  049%=      5-min Rain = 0
KSW1 130331Z 09006KT 22/10 A2992 RMK A01 T02150104  RH  049%=      5-min Rain = 0
KSW1 130332Z 10007KT 22/10 A2992 RMK A01 T02150103  RH  049%=      5-min Rain = 0
KSW1 130333Z 10007KT 22/10 A2992 RMK A01 T02150103  RH  049%=      5-min Rain = 0
KSW1 130334Z 11007KT 22/10 A2992 RMK A01 T02160103  RH  048%=      5-min Rain = 0
KSW1 130335Z 11007KT 22/10 A2992 RMK A01 T02180103  RH  048%=      5-min Rain = 0
KSW1 130336Z 11007KT 22/10 A2992 RMK A01 T02190103  RH  048%=      5-min Rain = 0
KSW1 130337Z 12006KT 22/10 A2992 RMK A01 T02190103  RH  048%=      5-min Rain = 0
KSW1 130338Z 12006KT 22/10 A2992 RMK A01 T02180104  RH  048%=      5-min Rain = 0
KSW1 130339Z 13005KT 22/10 A2992 RMK A01 T02170104  RH  049%=      5-min Rain = 0
KSW1 130340Z 13006KT 22/10 A2992 RMK A01 T02150103  RH  049%=      5-min Rain = 0
KSW1 130341Z 12006KT 21/10 A2992 RMK A01 T02140103  RH  049%=      5-min Rain = 0
KSW1 130342Z 12007KT 21/10 A2992 RMK A01 T02140104  RH  049%=      5-min Rain = 0
KSW1 130343Z 11007KT 21/10 A2992 RMK A01 T02130104  RH  049%=      5-min Rain = 0
KSW1 130344Z 11007KT 21/10 A2992 RMK A01 T02140103  RH  049%=      5-min Rain = 0
KSW1 130345Z 11006KT 21/10 A2992 RMK A01 T02140103  RH  049%=      5-min Rain = 0
KSW1 130346Z 11007KT 22/10 A2992 RMK A01 T02150103  RH  049%=      5-min Rain = 0
KSW1 130347Z 11007KT 22/10 A2992 RMK A01 T02150103  RH  049%=      5-min Rain = 0
KSW1 130348Z 10007KT 22/10 A2992 RMK A01 T02150103  RH  049%=      5-min Rain = 0
KSW1 130349Z 10007KT 22/10 A2992 RMK A01 T02150103  RH  049%=      5-min Rain = 0
KSW1 130350Z 11007KT 22/10 A2992 RMK A01 T02150103  RH  049%=      5-min Rain = 0
KSW1 130351Z 10007KT 22/10 A2992 RMK A01 T02160103  RH  048%=      5-min Rain = 0
KSW1 130352Z 10007KT 22/10 A2992 RMK A01 T02160103  RH  049%=      5-min Rain = 0
KSW1 130353Z 11007KT 22/10 A2992 RMK A01 T02160103  RH  049%=      5-min Rain = 0
KSW1 130354Z 11007KT 22/10 A2992 RMK A01 T02160103  RH  049%=      5-min Rain = 0
KSW1 130355Z 11007KT 22/10 A2992 RMK A01 T02160103  RH  049%=      5-min Rain = 0
KSW1 130356Z 11007KT 22/10 A2992 RMK A01 T02170103  RH  048%=      5-min Rain = 0
KSW1 130357Z 11007KT 22/10 A2992 RMK A01 T02180103  RH  048%=      5-min Rain = 0
KSW1 130358Z 11007KT 22/10 A2992 RMK A01 T02190103  RH  048%=      5-min Rain = 0
KSW1 130359Z 11007KT 22/10 A2992 RMK A01 T02200103  RH  047%=      5-min Rain = 0
KSW1 130400Z 11007KT 22/10 A2992 RMK A01 T02210103  RH  047%=      5-min Rain = 0
KSW1 130401Z 11007KT 22/10 A2992 RMK A01 T02210103  RH  047%=      5-min Rain = 0
KSW1 130402Z 11007KT 22/10 A2992 RMK A01 T02220103  RH  047%=      5-min Rain = 0
KSW1 130403Z 11007KT 22/10 A2992 RMK A01 T02220103  RH  047%=      5-min Rain = 0
KSW1 130404Z 11007KT 22/10 A2992 RMK A01 T02210103  RH  047%=      5-min Rain = 0
KSW1 130405Z 10007KT 22/10 A2992 RMK A01 T02210103  RH  047%=      5-min Rain = 0
KSW1 130406Z 10007KT 22/10 A2992 RMK A01 T02200103  RH  047%=      5-min Rain = 0
KSW1 130407Z 10007KT 22/10 A2992 RMK A01 T02200103  RH  047%=      5-min Rain = 0
KSW1 130408Z 10007KT 22/10 A2992 RMK A01 T02190102  RH  047%=      5-min Rain = 0
KSW1 130409Z 10008KT 22/10 A2992 RMK A01 T02200102  RH  047%=      5-min Rain = 0
KSW1 130410Z 10008KT 22/10 A2992 RMK A01 T02200102  RH  047%=      5-min Rain = 0
KSW1 130411Z 10008KT 22/10 A2992 RMK A01 T02200102  RH  047%=      5-min Rain = 0
KSW1 130412Z 10008KT 22/10 A2992 RMK A01 T02200102  RH  047%=      5-min Rain = 0
KSW1 130413Z 10008KT 22/10 A2992 RMK A01 T02210102  RH  047%=      5-min Rain = 0
KSW1 130414Z 09008KT 22/10 A2992 RMK A01 T02210102  RH  047%=      5-min Rain = 0
KSW1 130415Z 09008KT 22/10 A2992 RMK A01 T02220102  RH  047%=      5-min Rain = 0
KSW1 130416Z 09008KT 22/10 A2992 RMK A01 T02220102  RH  046%=      5-min Rain = 0
KSW1 130417Z 09008KT 22/10 A2992 RMK A01 T02220102  RH  046%=      5-min Rain = 0
KSW1 130418Z 10008KT 22/10 A2992 RMK A01 T02220102  RH  046%=      5-min Rain = 0
KSW1 130419Z 10007KT 22/10 A2992 RMK A01 T02220102  RH  046%=      5-min Rain = 0
KSW1 130420Z 10007KT 22/10 A2992 RMK A01 T02220102  RH  047%=      5-min Rain = 0
KSW1 130421Z 10007KT 22/10 A2992 RMK A01 T02210102  RH  047%=      5-min Rain = 0
KSW1 130422Z 10007KT 22/10 A2992 RMK A01 T02210102  RH  047%=      5-min Rain = 0
KSW1 130423Z 10006KT 22/10 A2992 RMK A01 T02200102  RH  047%=      5-min Rain = 0
KSW1 130424Z 10007KT 22/10 A2992 RMK A01 T02200102  RH  047%=      5-min Rain = 0
KSW1 130425Z 10007KT 22/10 A2992 RMK A01 T02200102  RH  047%=      5-min Rain = 0
KSW1 130426Z 10007KT 22/10 A2992 RMK A01 T02200102  RH  047%=      5-min Rain = 0
KSW1 130427Z 10007KT 22/10 A2992 RMK A01 T02190102  RH  047%=      5-min Rain = 0
KSW1 130428Z 10007KT 22/10 A2992 RMK A01 T02190102  RH  047%=      5-min Rain = 0
KSW1 130429Z 10007KT 22/10 A2992 RMK A01 T02180102  RH  048%=      5-min Rain = 0
KSW1 130430Z 10007KT 22/10 A2992 RMK A01 T02180102  RH  048%=      5-min Rain = 0
KSW1 130431Z 10008KT 22/10 A2992 RMK A01 T02180102  RH  048%=      5-min Rain = 0
KSW1 130432Z 09008KT 22/10 A2992 RMK A01 T02170102  RH  048%=      5-min Rain = 0
KSW1 130433Z 10008KT 22/10 A2992 RMK A01 T02170102  RH  048%=      5-min Rain = 0
KSW1 130434Z 09007KT 22/10 A2992 RMK A01 T02180102  RH  048%=      5-min Rain = 0
KSW1 130435Z 10008KT 22/10 A2992 RMK A01 T02180102  RH  048%=      5-min Rain = 0
KSW1 130436Z 09008KT 22/10 A2992 RMK A01 T02180102  RH  048%=      5-min Rain = 0
KSW1 130437Z 09008KT 22/10 A2992 RMK A01 T02180101  RH  047%=      5-min Rain = 0
KSW1 130438Z 09008KT 22/10 A2992 RMK A01 T02190102  RH  047%=      5-min Rain = 0
KSW1 130439Z 09008KT 22/10 A2992 RMK A01 T02190102  RH  047%=      5-min Rain = 0
KSW1 130440Z 10008KT 22/10 A2992 RMK A01 T02180102  RH  047%=      5-min Rain = 0
KSW1 130441Z 10009KT 22/10 A2992 RMK A01 T02190102  RH  047%=      5-min Rain = 0
KSW1 130442Z 10009KT 22/10 A2992 RMK A01 T02190102  RH  047%=      5-min Rain = 0
KSW1 130443Z 10009KT 22/10 A2992 RMK A01 T02190101  RH  047%=      5-min Rain = 0
KSW1 130444Z 10009KT 22/10 A2992 RMK A01 T02200102  RH  047%=      5-min Rain = 0
KSW1 130445Z 10009KT 22/10 A2992 RMK A01 T02200101  RH  047%=      5-min Rain = 0
KSW1 130446Z 10009KT 22/10 A2992 RMK A01 T02210101  RH  047%=      5-min Rain = 0
KSW1 130447Z 10008KT 22/10 A2992 RMK A01 T02210101  RH  046%=      5-min Rain = 0
KSW1 130448Z 10008KT 22/10 A2992 RMK A01 T02220101  RH  046%=      5-min Rain = 0
KSW1 130449Z 10008KT 22/10 A2992 RMK A01 T02210101  RH  046%=      5-min Rain = 0
KSW1 130450Z 10008KT 22/10 A2992 RMK A01 T02210101  RH  047%=      5-min Rain = 0
KSW1 130451Z 10008KT 22/10 A2992 RMK A01 T02200101  RH  047%=      5-min Rain = 0
KSW1 130452Z 10008KT 22/10 A2992 RMK A01 T02200101  RH  047%=      5-min Rain = 0
KSW1 130453Z 09008KT 22/10 A2992 RMK A01 T02200101  RH  047%=      5-min Rain = 0
KSW1 130454Z 10008KT 22/10 A2992 RMK A01 T02190101  RH  047%=      5-min Rain = 0
KSW1 130455Z 09008KT 22/10 A2992 RMK A01 T02190101  RH  047%=      5-min Rain = 0
KSW1 130456Z 10008KT 22/10 A2992 RMK A01 T02190100  RH  047%=      5-min Rain = 0
KSW1 130457Z 10007KT 22/10 A2992 RMK A01 T02190100  RH  047%=      5-min Rain = 0
KSW1 130458Z 10008KT 22/10 A2992 RMK A01 T02190101  RH  047%=      5-min Rain = 0
KSW1 130459Z 11006KT 22/10 A2992 RMK A01 T02190101  RH  047%=      5-min Rain = 0

Page generated in 0.1122 seconds.